Time,TemperatureF,DewpointF,PressureIn,WindDirection,WindDirectionDegrees,WindSpeedMPH,WindSpeedGustMPH,Humidity,HourlyPrecipIn,Conditions,Clouds,dailyrainin,SoftwareType,DateUTC
2013-01-31 00:00:00,47.7,37.9,29.50,West,270,17.0,17.0,69,0.09,,,0.93,meteohub,2013-01-31 05:00:00,
2013-01-31 00:02:00,47.5,37.8,29.49,NW,315,8.0,21.0,69,0.12,,,0.96,meteohub,2013-01-31 05:02:00,
2013-01-31 00:03:00,47.1,37.0,29.49,West,270,17.0,21.0,68,0.12,,,0.96,meteohub,2013-01-31 05:03:00,
2013-01-31 00:05:00,47.1,37.0,29.47,WSW,248,7.0,21.0,68,0.12,,,0.96,meteohub,2013-01-31 05:05:00,
2013-01-31 00:06:00,46.9,36.9,29.47,West,270,11.0,21.0,68,0.12,,,0.01,meteohub,2013-01-31 05:06:00,
2013-01-31 00:07:00,46.9,36.5,29.48,West,270,15.0,21.0,67,0.12,,,0.01,meteohub,2013-01-31 05:07:00,
2013-01-31 00:08:00,46.8,36.3,29.48,WSW,248,11.0,21.0,67,0.12,,,0.01,meteohub,2013-01-31 05:08:00,
2013-01-31 00:11:00,46.6,36.1,29.49,WSW,248,19.0,21.0,67,0.12,,,0.01,meteohub,2013-01-31 05:11:00,
2013-01-31 00:12:00,46.6,36.1,29.49,WSW,248,19.0,21.0,67,0.12,,,0.01,meteohub,2013-01-31 05:12:00,
2013-01-31 00:13:00,46.6,35.8,29.49,West,270,18.0,21.0,66,0.12,,,0.01,meteohub,2013-01-31 05:13:00,
2013-01-31 00:14:00,46.6,35.8,29.49,South,180,11.0,21.0,66,0.12,,,0.01,meteohub,2013-01-31 05:14:00,
2013-01-31 00:17:00,46.6,35.4,29.48,West,270,17.0,21.0,65,0.12,,,0.02,meteohub,2013-01-31 05:17:00,
2013-01-31 00:18:00,46.4,35.2,29.48,NW,315,15.0,21.0,65,0.12,,,0.02,meteohub,2013-01-31 05:18:00,
2013-01-31 00:19:00,46.4,34.9,29.48,West,270,19.0,21.0,64,0.12,,,0.02,meteohub,2013-01-31 05:19:00,
2013-01-31 00:22:00,46.4,34.5,29.48,West,270,6.0,19.0,63,0.12,,,0.02,meteohub,2013-01-31 05:22:00,
2013-01-31 00:23:00,46.4,34.5,29.48,East,90,11.0,19.0,63,0.12,,,0.02,meteohub,2013-01-31 05:23:00,
2013-01-31 00:26:00,46.2,34.3,29.49,South,180,14.0,19.0,63,0.11,,,0.02,meteohub,2013-01-31 05:26:00,
2013-01-31 00:28:00,46.2,34.3,29.49,West,270,8.0,19.0,63,0.11,,,0.02,meteohub,2013-01-31 05:28:00,
2013-01-31 00:31:00,46.0,34.2,29.48,NW,315,11.0,19.0,63,0.11,,,0.02,meteohub,2013-01-31 05:31:00,
2013-01-31 00:33:00,45.9,34.0,29.49,West,270,23.0,23.0,63,0.11,,,0.02,meteohub,2013-01-31 05:33:00,
2013-01-31 00:34:00,45.9,33.6,29.49,West,270,21.0,21.0,62,0.11,,,0.02,meteohub,2013-01-31 05:34:00,
2013-01-31 00:38:00,45.1,32.5,29.49,NW,315,11.0,27.0,61,0.09,,,0.04,meteohub,2013-01-31 05:38:00,
2013-01-31 00:39:00,45.1,32.5,29.49,NW,315,11.0,27.0,61,0.09,,,0.04,meteohub,2013-01-31 05:39:00,
2013-01-31 00:44:00,44.8,32.2,29.49,NW,315,14.0,27.0,61,0.09,,,0.05,meteohub,2013-01-31 05:44:00,
2013-01-31 00:45:00,44.6,32.0,29.49,WSW,248,18.0,27.0,61,0.09,,,0.05,meteohub,2013-01-31 05:45:00,
2013-01-31 00:49:00,44.4,31.8,29.49,West,270,14.0,27.0,61,0.09,,,0.05,meteohub,2013-01-31 05:49:00,
2013-01-31 00:50:00,44.2,31.3,29.49,WSW,248,14.0,27.0,60,0.09,,,0.05,meteohub,2013-01-31 05:50:00,
2013-01-31 00:51:00,44.2,31.3,29.49,WSW,248,15.0,23.0,60,0.08,,,0.06,meteohub,2013-01-31 05:51:00,
2013-01-31 00:55:00,44.1,30.2,29.51,WNW,293,14.0,23.0,58,0.08,,,0.06,meteohub,2013-01-31 05:55:00,
2013-01-31 00:56:00,44.1,29.8,29.50,WSW,248,12.0,21.0,57,0.07,,,0.06,meteohub,2013-01-31 05:56:00,
2013-01-31 00:57:00,44.1,29.8,29.49,West,270,11.0,21.0,57,0.07,,,0.06,meteohub,2013-01-31 05:57:00,
2013-01-31 01:00:00,43.9,28.4,29.47,West,270,15.0,21.0,54,0.06,,,0.06,meteohub,2013-01-31 06:00:00,
2013-01-31 01:01:00,43.9,28.4,29.47,West,270,8.0,21.0,54,0.06,,,0.06,meteohub,2013-01-31 06:01:00,
2013-01-31 01:02:00,43.7,28.2,29.48,WSW,248,8.0,21.0,54,0.06,,,0.06,meteohub,2013-01-31 06:02:00,
2013-01-31 01:03:00,43.7,28.2,29.48,WSW,248,8.0,21.0,54,0.06,,,0.06,meteohub,2013-01-31 06:03:00,
2013-01-31 01:05:00,43.7,27.7,29.47,WSW,248,17.0,23.0,53,0.06,,,0.07,meteohub,2013-01-31 06:05:00,
2013-01-31 01:07:00,43.5,27.5,29.47,WSW,248,17.0,23.0,53,0.06,,,0.07,meteohub,2013-01-31 06:07:00,
2013-01-31 01:08:00,43.5,27.5,29.46,WSW,248,4.0,23.0,53,0.06,,,0.07,meteohub,2013-01-31 06:08:00,
2013-01-31 01:09:00,43.5,27.5,29.44,WSW,248,11.0,23.0,53,0.06,,,0.07,meteohub,2013-01-31 06:09:00,
2013-01-31 01:11:00,43.5,27.5,29.46,South,180,14.0,23.0,53,0.05,,,0.07,meteohub,2013-01-31 06:11:00,
2013-01-31 01:12:00,43.3,27.3,29.43,WSW,248,14.0,23.0,53,0.05,,,0.07,meteohub,2013-01-31 06:12:00,
2013-01-31 01:14:00,43.3,27.3,29.46,WSW,248,11.0,23.0,53,0.05,,,0.07,meteohub,2013-01-31 06:14:00,
2013-01-31 01:17:00,43.3,27.3,29.46,NW,315,19.0,20.0,53,0.05,,,0.07,meteohub,2013-01-31 06:17:00,
2013-01-31 01:19:00,43.5,27.5,29.46,SE,135,9.0,20.0,53,0.05,,,0.07,meteohub,2013-01-31 06:19:00,
2013-01-31 01:22:00,43.3,27.3,29.44,West,270,15.0,20.0,53,0.05,,,0.07,meteohub,2013-01-31 06:22:00,
2013-01-31 01:23:00,43.3,27.3,29.44,WSW,248,4.0,20.0,53,0.05,,,0.07,meteohub,2013-01-31 06:23:00,
2013-01-31 01:25:00,43.3,27.3,29.44,NW,315,6.0,20.0,53,0.05,,,0.07,meteohub,2013-01-31 06:25:00,
2013-01-31 01:28:00,43.3,27.9,29.45,WSW,248,7.0,19.0,54,0.05,,,0.07,meteohub,2013-01-31 06:28:00,
2013-01-31 01:29:00,43.3,27.9,29.45,West,270,10.0,19.0,54,0.05,,,0.07,meteohub,2013-01-31 06:29:00,
2013-01-31 01:30:00,43.3,27.9,29.45,West,270,11.0,19.0,54,0.05,,,0.07,meteohub,2013-01-31 06:30:00,
2013-01-31 01:33:00,43.3,27.9,29.44,WSW,248,7.0,19.0,54,0.04,,,0.07,meteohub,2013-01-31 06:33:00,
2013-01-31 01:34:00,43.3,27.9,29.43,WSW,248,8.0,19.0,54,0.04,,,0.07,meteohub,2013-01-31 06:34:00,
2013-01-31 01:35:00,43.2,27.7,29.43,NW,315,4.0,15.0,54,0.02,,,0.07,meteohub,2013-01-31 06:35:00,
2013-01-31 01:36:00,43.2,27.7,29.43,NW,315,4.0,15.0,54,0.02,,,0.07,meteohub,2013-01-31 06:36:00,
2013-01-31 01:38:00,43.2,28.0,29.45,WSW,248,4.0,15.0,55,0.02,,,0.07,meteohub,2013-01-31 06:38:00,
2013-01-31 01:39:00,43.2,28.0,29.45,WSW,248,4.0,15.0,55,0.02,,,0.07,meteohub,2013-01-31 06:39:00,
2013-01-31 01:41:00,43.2,28.0,29.46,WSW,248,8.0,14.0,55,0.02,,,0.07,meteohub,2013-01-31 06:41:00,
2013-01-31 01:42:00,43.2,28.0,29.47,South,180,11.0,14.0,55,0.02,,,0.07,meteohub,2013-01-31 06:42:00,
2013-01-31 01:44:00,43.2,28.6,29.49,South,180,14.0,14.0,56,0.02,,,0.07,meteohub,2013-01-31 06:44:00,
2013-01-31 01:46:00,43.2,28.9,29.50,West,270,8.0,11.0,57,0.01,,,0.07,meteohub,2013-01-31 06:46:00,
2013-01-31 01:47:00,43.0,28.8,29.50,SE,135,11.0,11.0,57,0.01,,,0.07,meteohub,2013-01-31 06:47:00,
2013-01-31 01:49:00,42.4,27.9,29.49,West,270,13.0,13.0,56,0.01,,,0.07,meteohub,2013-01-31 06:49:00,
2013-01-31 01:51:00,41.4,25.9,29.49,West,270,23.0,23.0,54,0.04,,,0.09,meteohub,2013-01-31 06:51:00,
2013-01-31 01:54:00,40.5,25.2,29.49,WSW,248,11.0,16.0,54,0.04,,,0.09,meteohub,2013-01-31 06:54:00,
2013-01-31 01:55:00,39.7,24.4,29.49,North,0,9.0,23.0,54,0.04,,,0.09,meteohub,2013-01-31 06:55:00,
2013-01-31 01:57:00,39.6,24.3,29.50,WSW,248,8.0,23.0,54,0.04,,,0.09,meteohub,2013-01-31 06:57:00,
2013-01-31 01:59:00,39.0,23.7,29.49,WSW,248,22.0,23.0,54,0.04,,,0.09,meteohub,2013-01-31 06:59:00,
2013-01-31 02:00:00,38.8,23.5,29.49,WSW,248,21.0,23.0,54,0.04,,,0.11,meteohub,2013-01-31 07:00:00,
2013-01-31 02:02:00,38.7,23.9,29.50,WNW,293,27.0,27.0,55,0.04,,,0.11,meteohub,2013-01-31 07:02:00,
2013-01-31 02:05:00,38.3,23.9,29.52,WSW,248,9.0,23.0,56,0.04,,,0.11,meteohub,2013-01-31 07:05:00,
2013-01-31 02:07:00,38.1,23.9,29.52,West,270,11.0,27.0,56,0.05,,,0.12,meteohub,2013-01-31 07:07:00,
2013-01-31 02:08:00,38.1,24.3,29.53,WSW,248,9.0,27.0,57,0.05,,,0.12,meteohub,2013-01-31 07:08:00,
2013-01-31 02:10:00,37.9,24.1,29.53,WSW,248,13.0,27.0,57,0.05,,,0.12,meteohub,2013-01-31 07:10:00,
2013-01-31 02:11:00,37.9,24.1,29.53,NW,315,11.0,27.0,57,0.05,,,0.12,meteohub,2013-01-31 07:11:00,
2013-01-31 02:13:00,37.8,23.9,29.53,WSW,248,15.0,27.0,57,0.05,,,0.12,meteohub,2013-01-31 07:13:00,
2013-01-31 02:15:00,37.4,23.5,29.52,NW,315,8.0,27.0,57,0.05,,,0.12,meteohub,2013-01-31 07:15:00,
2013-01-31 02:16:00,37.4,23.5,29.52,NW,315,8.0,27.0,57,0.05,,,0.12,meteohub,2013-01-31 07:16:00,
2013-01-31 02:18:00,37.0,22.8,29.52,West,270,13.0,27.0,56,0.05,,,0.12,meteohub,2013-01-31 07:18:00,
2013-01-31 02:19:00,37.0,22.8,29.52,WSW,248,12.0,27.0,56,0.05,,,0.12,meteohub,2013-01-31 07:19:00,
2013-01-31 02:20:00,36.9,22.3,29.52,WSW,248,21.0,27.0,55,0.05,,,0.12,meteohub,2013-01-31 07:20:00,
2013-01-31 02:21:00,36.7,22.1,29.52,SE,135,7.0,18.0,55,0.05,,,0.12,meteohub,2013-01-31 07:21:00,
2013-01-31 02:23:00,36.5,21.9,29.52,WSW,248,19.0,19.0,55,0.05,,,0.12,meteohub,2013-01-31 07:23:00,
2013-01-31 02:24:00,36.5,21.4,29.52,South,180,11.0,18.0,54,0.05,,,0.12,meteohub,2013-01-31 07:24:00,
2013-01-31 02:26:00,36.3,21.2,29.52,NW,315,10.0,21.0,54,0.05,,,0.12,meteohub,2013-01-31 07:26:00,
2013-01-31 02:29:00,36.0,21.0,29.52,West,270,11.0,21.0,54,0.05,,,0.12,meteohub,2013-01-31 07:29:00,
2013-01-31 02:31:00,35.8,20.8,29.52,NW,315,11.0,21.0,54,0.05,,,0.12,meteohub,2013-01-31 07:31:00,
2013-01-31 02:34:00,35.2,20.3,29.53,West,270,17.0,21.0,54,0.05,,,0.12,meteohub,2013-01-31 07:34:00,
2013-01-31 02:35:00,35.2,20.3,29.54,NW,315,15.0,21.0,54,0.05,,,0.12,meteohub,2013-01-31 07:35:00,
2013-01-31 02:36:00,35.1,20.1,29.54,SE,135,13.0,21.0,54,0.05,,,0.12,meteohub,2013-01-31 07:36:00,
2013-01-31 02:37:00,35.1,20.1,29.54,NW,315,23.0,23.0,54,0.05,,,0.12,meteohub,2013-01-31 07:37:00,
2013-01-31 02:40:00,34.9,19.9,29.54,West,270,12.0,21.0,54,0.05,,,0.12,meteohub,2013-01-31 07:40:00,
2013-01-31 02:42:00,34.7,19.8,29.55,NW,315,12.0,23.0,54,0.06,,,0.13,meteohub,2013-01-31 07:42:00,
2013-01-31 02:45:00,34.3,19.8,29.55,WSW,248,16.0,23.0,55,0.06,,,0.13,meteohub,2013-01-31 07:45:00,
2013-01-31 02:47:00,34.3,19.8,29.55,NW,315,13.0,23.0,55,0.06,,,0.13,meteohub,2013-01-31 07:47:00,
2013-01-31 02:50:00,33.8,19.8,29.56,NW,315,21.0,23.0,56,0.04,,,0.13,meteohub,2013-01-31 07:50:00,
2013-01-31 02:52:00,33.6,19.6,29.56,WSW,248,15.0,23.0,56,0.04,,,0.13,meteohub,2013-01-31 07:52:00,
2013-01-31 02:53:00,33.6,19.6,29.56,WSW,248,8.0,23.0,56,0.04,,,0.13,meteohub,2013-01-31 07:53:00,
2013-01-31 02:56:00,33.3,19.2,29.56,WSW,248,8.0,21.0,56,0.02,,,0.13,meteohub,2013-01-31 07:56:00,
2013-01-31 02:58:00,33.3,19.2,29.55,NW,315,16.0,21.0,56,0.02,,,0.13,meteohub,2013-01-31 07:58:00,
2013-01-31 02:59:00,33.3,19.2,29.56,WSW,248,13.0,21.0,56,0.02,,,0.13,meteohub,2013-01-31 07:59:00,
2013-01-31 03:01:00,33.1,19.6,29.55,WSW,248,11.0,25.0,57,0.01,,,0.13,meteohub,2013-01-31 08:01:00,
2013-01-31 03:03:00,33.1,19.6,29.56,WSW,248,9.0,25.0,57,0.01,,,0.13,meteohub,2013-01-31 08:03:00,
2013-01-31 03:04:00,33.1,19.6,29.56,East,90,6.0,25.0,57,0.01,,,0.13,meteohub,2013-01-31 08:04:00,
2013-01-31 03:06:00,32.9,19.8,29.55,WNW,293,5.0,25.0,58,0.01,,,0.13,meteohub,2013-01-31 08:06:00,
2013-01-31 03:08:00,32.7,19.6,29.56,West,270,20.0,25.0,58,0.01,,,0.13,meteohub,2013-01-31 08:08:00,
2013-01-31 03:09:00,32.7,19.6,29.56,West,270,11.0,25.0,58,0.01,,,0.13,meteohub,2013-01-31 08:09:00,
2013-01-31 03:11:00,32.7,19.9,29.55,NW,315,18.0,20.0,59,0.01,,,0.13,meteohub,2013-01-31 08:11:00,
2013-01-31 03:14:00,32.5,19.8,29.55,NW,315,11.0,20.0,59,0.01,,,0.13,meteohub,2013-01-31 08:14:00,
2013-01-31 03:15:00,32.5,19.8,29.55,NW,315,11.0,20.0,59,0.01,,,0.13,meteohub,2013-01-31 08:15:00,
2013-01-31 03:16:00,32.5,19.8,29.55,North,0,13.0,20.0,59,0.01,,,0.13,meteohub,2013-01-31 08:16:00,
2013-01-31 03:18:00,32.5,19.8,29.55,WSW,248,12.0,20.0,59,0.01,,,0.13,meteohub,2013-01-31 08:18:00,
2013-01-31 03:20:00,32.5,19.8,29.55,WSW,248,15.0,20.0,59,0.01,,,0.13,meteohub,2013-01-31 08:20:00,
2013-01-31 03:21:00,32.4,19.6,29.56,South,180,20.0,20.0,59,0.01,,,0.13,meteohub,2013-01-31 08:21:00,
2013-01-31 03:23:00,32.4,19.9,29.56,West,270,10.0,20.0,60,0.01,,,0.13,meteohub,2013-01-31 08:23:00,
2013-01-31 03:25:00,32.4,19.9,29.56,WSW,248,12.0,20.0,60,0.01,,,0.13,meteohub,2013-01-31 08:25:00,
2013-01-31 03:27:00,32.4,19.9,29.55,West,270,11.0,20.0,60,0.01,,,0.13,meteohub,2013-01-31 08:27:00,
2013-01-31 03:30:00,32.4,19.9,29.56,WSW,248,16.0,22.0,60,0.01,,,0.13,meteohub,2013-01-31 08:30:00,
2013-01-31 03:31:00,32.4,19.9,29.56,WSW,248,16.0,22.0,60,0.01,,,0.13,meteohub,2013-01-31 08:31:00,
2013-01-31 03:32:00,32.4,19.9,29.57,WSW,248,16.0,22.0,60,0.01,,,0.13,meteohub,2013-01-31 08:32:00,
2013-01-31 03:33:00,32.2,19.9,29.57,WSW,248,16.0,22.0,60,0.01,,,0.13,meteohub,2013-01-31 08:33:00,
2013-01-31 03:35:00,32.0,19.8,29.57,West,270,14.0,22.0,60,0.01,,,0.13,meteohub,2013-01-31 08:35:00,
2013-01-31 03:36:00,32.0,19.8,29.57,WSW,248,14.0,22.0,60,0.01,,,0.13,meteohub,2013-01-31 08:36:00,
2013-01-31 03:37:00,32.0,19.8,29.57,WSW,248,14.0,22.0,60,0.01,,,0.13,meteohub,2013-01-31 08:37:00,
2013-01-31 03:38:00,31.6,19.4,29.56,West,270,17.0,22.0,60,0.01,,,0.13,meteohub,2013-01-31 08:38:00,
2013-01-31 03:40:00,31.5,19.2,29.56,West,270,7.0,22.0,60,0.00,,,0.13,meteohub,2013-01-31 08:40:00,
2013-01-31 03:42:00,31.3,19.0,29.57,NW,315,15.0,22.0,60,0.00,,,0.13,meteohub,2013-01-31 08:42:00,
2013-01-31 03:44:00,31.1,18.9,29.57,West,270,13.0,22.0,60,0.00,,,0.13,meteohub,2013-01-31 08:44:00,
2013-01-31 03:46:00,30.9,18.7,29.57,NW,315,15.0,18.0,60,0.00,,,0.13,meteohub,2013-01-31 08:46:00,
2013-01-31 03:47:00,30.9,18.7,29.57,NW,315,15.0,18.0,60,0.00,,,0.13,meteohub,2013-01-31 08:47:00,
2013-01-31 03:49:00,30.7,18.9,29.57,WSW,248,13.0,18.0,61,0.00,,,0.13,meteohub,2013-01-31 08:49:00,
2013-01-31 03:52:00,30.6,18.7,29.57,South,180,11.0,21.0,61,0.00,,,0.13,meteohub,2013-01-31 08:52:00,
2013-01-31 03:54:00,30.7,18.9,29.58,West,270,9.0,21.0,61,0.00,,,0.13,meteohub,2013-01-31 08:54:00,
2013-01-31 03:57:00,30.7,18.9,29.58,West,270,12.0,21.0,61,0.00,,,0.13,meteohub,2013-01-31 08:57:00,
2013-01-31 03:58:00,30.7,18.9,29.58,NW,315,6.0,21.0,61,0.00,,,0.13,meteohub,2013-01-31 08:58:00,
2013-01-31 03:59:00,30.6,19.0,29.58,South,180,12.0,21.0,62,0.00,,,0.13,meteohub,2013-01-31 08:59:00,
2013-01-31 04:01:00,30.6,19.0,29.57,WSW,248,8.0,21.0,62,0.00,,,0.13,meteohub,2013-01-31 09:01:00,
2013-01-31 04:03:00,30.6,19.0,29.58,West,270,5.0,21.0,62,0.00,,,0.13,meteohub,2013-01-31 09:03:00,
2013-01-31 04:04:00,30.6,19.0,29.58,South,180,8.0,21.0,62,0.00,,,0.13,meteohub,2013-01-31 09:04:00,
2013-01-31 04:06:00,30.4,18.9,29.58,WNW,293,23.0,23.0,62,0.00,,,0.13,meteohub,2013-01-31 09:06:00,
2013-01-31 04:08:00,30.2,18.7,29.57,WSW,248,11.0,14.0,62,0.00,,,0.13,meteohub,2013-01-31 09:08:00,
2013-01-31 04:09:00,30.2,18.7,29.58,NW,315,11.0,14.0,62,0.00,,,0.13,meteohub,2013-01-31 09:09:00,
2013-01-31 04:11:00,30.2,18.7,29.58,NW,315,15.0,23.0,62,0.00,,,0.13,meteohub,2013-01-31 09:11:00,
2013-01-31 04:13:00,30.0,18.5,29.58,South,180,13.0,23.0,62,0.00,,,0.13,meteohub,2013-01-31 09:13:00,
2013-01-31 04:14:00,30.0,18.5,29.58,WSW,248,8.0,23.0,62,0.00,,,0.13,meteohub,2013-01-31 09:14:00,
2013-01-31 04:15:00,29.8,18.5,29.58,WSW,248,15.0,23.0,62,0.00,,,0.13,meteohub,2013-01-31 09:15:00,
2013-01-31 04:17:00,29.8,18.5,29.58,West,270,20.0,23.0,62,0.00,,,0.13,meteohub,2013-01-31 09:17:00,
2013-01-31 04:19:00,29.8,18.9,29.58,WSW,248,10.0,23.0,63,0.00,,,0.13,meteohub,2013-01-31 09:19:00,
2013-01-31 04:20:00,29.8,18.9,29.58,NW,315,15.0,23.0,63,0.00,,,0.13,meteohub,2013-01-31 09:20:00,
2013-01-31 04:23:00,29.7,18.3,29.58,SSE,158,8.0,23.0,62,0.00,,,0.13,meteohub,2013-01-31 09:23:00,
2013-01-31 04:24:00,29.7,18.7,29.58,West,270,6.0,23.0,63,0.00,,,0.13,meteohub,2013-01-31 09:24:00,
2013-01-31 04:25:00,29.7,18.7,29.58,West,270,6.0,23.0,63,0.00,,,0.13,meteohub,2013-01-31 09:25:00,
2013-01-31 04:26:00,29.7,18.7,29.58,WSW,248,17.0,20.0,63,0.00,,,0.13,meteohub,2013-01-31 09:26:00,
2013-01-31 04:28:00,29.7,18.7,29.58,NW,315,14.0,20.0,63,0.00,,,0.13,meteohub,2013-01-31 09:28:00,
2013-01-31 04:30:00,29.7,18.7,29.57,WSW,248,14.0,22.0,63,0.00,,,0.13,meteohub,2013-01-31 09:30:00,
2013-01-31 04:31:00,29.7,18.7,29.57,WSW,248,14.0,22.0,63,0.00,,,0.13,meteohub,2013-01-31 09:31:00,
2013-01-31 04:33:00,29.7,18.7,29.57,WNW,293,11.0,22.0,63,0.00,,,0.13,meteohub,2013-01-31 09:33:00,
2013-01-31 04:36:00,29.7,18.7,29.57,NW,315,13.0,22.0,63,0.00,,,0.13,meteohub,2013-01-31 09:36:00,
2013-01-31 04:37:00,29.7,18.7,29.57,WSW,248,23.0,23.0,63,0.00,,,0.13,meteohub,2013-01-31 09:37:00,
2013-01-31 04:39:00,29.5,18.5,29.57,West,270,11.0,22.0,63,0.00,,,0.13,meteohub,2013-01-31 09:39:00,
2013-01-31 04:41:00,29.5,18.5,29.57,West,270,10.0,23.0,63,0.00,,,0.13,meteohub,2013-01-31 09:41:00,
2013-01-31 04:42:00,29.5,18.5,29.57,NW,315,11.0,23.0,63,0.00,,,0.13,meteohub,2013-01-31 09:42:00,
2013-01-31 04:43:00,29.5,18.5,29.57,West,270,8.0,23.0,63,0.00,,,0.13,meteohub,2013-01-31 09:43:00,
2013-01-31 04:45:00,29.5,18.5,29.57,West,270,17.0,23.0,63,0.00,,,0.13,meteohub,2013-01-31 09:45:00,
2013-01-31 04:46:00,29.5,18.5,29.57,West,270,15.0,23.0,63,0.00,,,0.13,meteohub,2013-01-31 09:46:00,
2013-01-31 04:48:00,29.5,18.5,29.57,WSW,248,10.0,23.0,63,0.00,,,0.13,meteohub,2013-01-31 09:48:00,
2013-01-31 04:50:00,29.3,18.3,29.57,NW,315,16.0,23.0,63,0.00,,,0.13,meteohub,2013-01-31 09:50:00,
2013-01-31 04:51:00,29.3,18.3,29.57,NW,315,19.0,23.0,63,0.00,,,0.13,meteohub,2013-01-31 09:51:00,
2013-01-31 04:52:00,29.3,18.3,29.56,West,270,20.0,23.0,63,0.00,,,0.13,meteohub,2013-01-31 09:52:00,
2013-01-31 04:54:00,29.1,18.1,29.58,NW,315,21.0,23.0,63,0.00,,,0.13,meteohub,2013-01-31 09:54:00,
2013-01-31 04:56:00,29.1,18.1,29.58,WSW,248,9.0,23.0,63,0.00,,,0.13,meteohub,2013-01-31 09:56:00,
2013-01-31 04:57:00,29.1,17.8,29.59,NW,315,9.0,26.0,62,0.00,,,0.13,meteohub,2013-01-31 09:57:00,
2013-01-31 04:58:00,29.1,17.8,29.59,NW,315,9.0,26.0,62,0.00,,,0.13,meteohub,2013-01-31 09:58:00,
2013-01-31 04:59:00,29.1,18.1,29.58,North,0,10.0,26.0,63,0.00,,,0.13,meteohub,2013-01-31 09:59:00,
2013-01-31 05:01:00,29.1,18.1,29.59,West,270,18.0,26.0,63,0.00,,,0.13,meteohub,2013-01-31 10:01:00,
2013-01-31 05:03:00,28.9,18.0,29.59,WSW,248,19.0,26.0,63,0.00,,,0.13,meteohub,2013-01-31 10:03:00,
2013-01-31 05:04:00,28.8,17.4,29.59,NW,315,26.0,26.0,62,0.00,,,0.13,meteohub,2013-01-31 10:04:00,
2013-01-31 05:06:00,28.2,16.9,29.59,NW,315,16.0,26.0,62,0.00,,,0.13,meteohub,2013-01-31 10:06:00,
2013-01-31 05:08:00,28.0,16.7,29.59,NW,315,15.0,26.0,62,0.00,,,0.13,meteohub,2013-01-31 10:08:00,
2013-01-31 05:09:00,27.9,16.5,29.59,NW,315,13.0,26.0,62,0.00,,,0.13,meteohub,2013-01-31 10:09:00,
2013-01-31 05:10:00,27.9,16.5,29.60,NW,315,11.0,26.0,62,0.00,,,0.13,meteohub,2013-01-31 10:10:00,
2013-01-31 05:12:00,27.9,16.5,29.60,NW,315,11.0,26.0,62,0.00,,,0.13,meteohub,2013-01-31 10:12:00,
2013-01-31 05:13:00,27.9,16.5,29.60,West,270,11.0,26.0,62,0.00,,,0.13,meteohub,2013-01-31 10:13:00,
2013-01-31 05:15:00,27.7,16.3,29.60,NW,315,11.0,26.0,62,0.00,,,0.13,meteohub,2013-01-31 10:15:00,
2013-01-31 05:16:00,27.7,16.3,29.60,West,270,17.0,26.0,62,0.00,,,0.13,meteohub,2013-01-31 10:16:00,
2013-01-31 05:18:00,27.5,16.2,29.60,North,0,11.0,26.0,62,0.00,,,0.13,meteohub,2013-01-31 10:18:00,
2013-01-31 05:20:00,27.5,16.2,29.60,West,270,11.0,26.0,62,0.00,,,0.13,meteohub,2013-01-31 10:20:00,
2013-01-31 05:21:00,27.5,16.2,29.61,WNW,293,23.0,26.0,62,0.00,,,0.13,meteohub,2013-01-31 10:21:00,
2013-01-31 05:23:00,27.3,16.0,29.61,NW,315,11.0,17.0,62,0.00,,,0.13,meteohub,2013-01-31 10:23:00,
2013-01-31 05:25:00,27.3,16.0,29.61,NW,315,4.0,17.0,62,0.00,,,0.13,meteohub,2013-01-31 10:25:00,
2013-01-31 05:26:00,27.3,16.0,29.61,West,270,8.0,23.0,62,0.00,,,0.13,meteohub,2013-01-31 10:26:00,
2013-01-31 05:27:00,27.5,16.2,29.60,NW,315,10.0,23.0,62,0.00,,,0.13,meteohub,2013-01-31 10:27:00,
2013-01-31 05:29:00,27.3,16.0,29.61,North,0,11.0,23.0,62,0.00,,,0.13,meteohub,2013-01-31 10:29:00,
2013-01-31 05:31:00,27.5,16.2,29.61,NW,315,11.0,23.0,62,0.00,,,0.13,meteohub,2013-01-31 10:31:00,
2013-01-31 05:32:00,27.5,16.2,29.61,NW,315,11.0,23.0,62,0.00,,,0.13,meteohub,2013-01-31 10:32:00,
2013-01-31 05:34:00,27.3,16.0,29.61,South,180,4.0,23.0,62,0.00,,,0.13,meteohub,2013-01-31 10:34:00,
2013-01-31 05:35:00,27.3,16.0,29.61,NW,315,4.0,23.0,62,0.00,,,0.13,meteohub,2013-01-31 10:35:00,
2013-01-31 05:36:00,27.3,16.0,29.61,West,270,8.0,23.0,62,0.00,,,0.13,meteohub,2013-01-31 10:36:00,
2013-01-31 05:37:00,27.3,16.0,29.61,West,270,11.0,23.0,62,0.00,,,0.13,meteohub,2013-01-31 10:37:00,
2013-01-31 05:39:00,27.3,16.0,29.61,NW,315,8.0,23.0,62,0.00,,,0.13,meteohub,2013-01-31 10:39:00,
2013-01-31 05:41:00,27.3,16.0,29.61,WSW,248,10.0,17.0,62,0.00,,,0.13,meteohub,2013-01-31 10:41:00,
2013-01-31 05:42:00,27.3,16.0,29.61,WSW,248,10.0,17.0,62,0.00,,,0.13,meteohub,2013-01-31 10:42:00,
2013-01-31 05:43:00,27.5,16.2,29.62,WSW,248,8.0,17.0,62,0.00,,,0.13,meteohub,2013-01-31 10:43:00,
2013-01-31 05:44:00,27.5,16.2,29.62,WSW,248,6.0,17.0,62,0.00,,,0.13,meteohub,2013-01-31 10:44:00,
2013-01-31 05:47:00,27.5,16.2,29.62,West,270,7.0,17.0,62,0.00,,,0.13,meteohub,2013-01-31 10:47:00,
2013-01-31 05:48:00,27.5,16.2,29.62,NW,315,5.0,17.0,62,0.00,,,0.13,meteohub,2013-01-31 10:48:00,
2013-01-31 05:50:00,27.5,16.2,29.62,NW,315,13.0,17.0,62,0.00,,,0.13,meteohub,2013-01-31 10:50:00,
2013-01-31 05:52:00,27.5,16.2,29.63,West,270,11.0,17.0,62,0.00,,,0.13,meteohub,2013-01-31 10:52:00,
2013-01-31 05:53:00,27.5,16.2,29.62,West,270,10.0,17.0,62,0.00,,,0.13,meteohub,2013-01-31 10:53:00,
2013-01-31 05:55:00,27.5,16.2,29.63,South,180,4.0,13.0,62,0.00,,,0.13,meteohub,2013-01-31 10:55:00,
2013-01-31 05:58:00,27.5,16.5,29.63,WSW,248,4.0,13.0,63,0.00,,,0.13,meteohub,2013-01-31 10:58:00,
2013-01-31 06:00:00,27.3,16.0,29.64,NW,315,8.0,14.0,62,0.00,,,0.13,meteohub,2013-01-31 11:00:00,
2013-01-31 06:01:00,27.5,16.2,29.64,West,270,4.0,14.0,62,0.00,,,0.13,meteohub,2013-01-31 11:01:00,
2013-01-31 06:04:00,27.3,16.3,29.64,NW,315,15.0,15.0,63,0.00,,,0.13,meteohub,2013-01-31 11:04:00,
2013-01-31 06:06:00,27.1,16.2,29.64,West,270,19.0,19.0,63,0.00,,,0.13,meteohub,2013-01-31 11:06:00,
2013-01-31 06:07:00,27.0,15.6,29.64,WSW,248,11.0,14.0,62,0.00,,,0.13,meteohub,2013-01-31 11:07:00,
2013-01-31 06:10:00,26.8,15.4,29.64,WNW,293,10.0,14.0,62,0.00,,,0.13,meteohub,2013-01-31 11:10:00,
2013-01-31 06:11:00,26.6,15.3,29.65,NW,315,20.0,23.0,62,0.00,,,0.13,meteohub,2013-01-31 11:11:00,
2013-01-31 06:12:00,26.6,15.3,29.65,NW,315,20.0,23.0,62,0.00,,,0.13,meteohub,2013-01-31 11:12:00,
2013-01-31 06:15:00,26.2,15.1,29.65,NW,315,22.0,23.0,62,0.00,,,0.13,meteohub,2013-01-31 11:15:00,
2013-01-31 06:17:00,26.2,15.1,29.64,West,270,11.0,23.0,62,0.00,,,0.13,meteohub,2013-01-31 11:17:00,
2013-01-31 06:18:00,26.1,14.9,29.64,NW,315,8.0,23.0,62,0.00,,,0.13,meteohub,2013-01-31 11:18:00,
2013-01-31 06:20:00,26.1,14.9,29.65,NW,315,10.0,23.0,62,0.00,,,0.13,meteohub,2013-01-31 11:20:00,
2013-01-31 06:22:00,26.1,14.9,29.65,WSW,248,8.0,23.0,62,0.00,,,0.13,meteohub,2013-01-31 11:22:00,
2013-01-31 06:23:00,26.1,14.9,29.65,North,0,4.0,23.0,62,0.00,,,0.13,meteohub,2013-01-31 11:23:00,
2013-01-31 06:26:00,26.1,14.9,29.65,West,270,6.0,22.0,62,0.00,,,0.13,meteohub,2013-01-31 11:26:00,
2013-01-31 06:27:00,26.1,14.9,29.65,NW,315,6.0,22.0,62,0.00,,,0.13,meteohub,2013-01-31 11:27:00,
2013-01-31 06:28:00,26.1,14.9,29.65,NW,315,8.0,22.0,62,0.00,,,0.13,meteohub,2013-01-31 11:28:00,
2013-01-31 06:32:00,26.1,14.9,29.66,WNW,293,16.0,16.0,62,0.00,,,0.13,meteohub,2013-01-31 11:32:00,
2013-01-31 06:33:00,26.1,14.9,29.66,WSW,248,8.0,16.0,62,0.00,,,0.13,meteohub,2013-01-31 11:33:00,
2013-01-31 06:34:00,26.1,14.9,29.65,WSW,248,5.0,16.0,62,0.00,,,0.13,meteohub,2013-01-31 11:34:00,
2013-01-31 06:38:00,26.1,14.9,29.66,West,270,14.0,16.0,62,0.00,,,0.13,meteohub,2013-01-31 11:38:00,
2013-01-31 06:39:00,26.2,15.1,29.67,West,270,12.0,16.0,62,0.00,,,0.13,meteohub,2013-01-31 11:39:00,
2013-01-31 06:40:00,26.2,15.1,29.66,NW,315,11.0,16.0,62,0.00,,,0.13,meteohub,2013-01-31 11:40:00,
2013-01-31 06:43:00,26.2,15.1,29.67,WSW,248,6.0,17.0,62,0.00,,,0.13,meteohub,2013-01-31 11:43:00,
2013-01-31 06:44:00,26.2,15.1,29.67,NW,315,14.0,17.0,62,0.00,,,0.13,meteohub,2013-01-31 11:44:00,
2013-01-31 06:45:00,26.2,15.1,29.67,NW,315,8.0,17.0,62,0.00,,,0.13,meteohub,2013-01-31 11:45:00,
2013-01-31 06:48:00,26.4,15.6,29.67,West,270,13.0,19.0,63,0.00,,,0.13,meteohub,2013-01-31 11:48:00,
2013-01-31 06:49:00,26.4,15.6,29.67,West,270,6.0,19.0,63,0.00,,,0.13,meteohub,2013-01-31 11:49:00,
2013-01-31 06:51:00,26.4,15.1,29.67,NW,315,4.0,19.0,62,0.00,,,0.13,meteohub,2013-01-31 11:51:00,
2013-01-31 06:53:00,26.4,15.6,29.67,NW,315,10.0,19.0,63,0.00,,,0.13,meteohub,2013-01-31 11:53:00,
2013-01-31 06:55:00,26.4,15.6,29.67,NW,315,5.0,19.0,63,0.00,,,0.13,meteohub,2013-01-31 11:55:00,
2013-01-31 06:57:00,26.4,15.6,29.67,North,0,7.0,19.0,63,0.00,,,0.13,meteohub,2013-01-31 11:57:00,
2013-01-31 06:58:00,26.4,15.6,29.68,WSW,248,13.0,19.0,63,0.00,,,0.13,meteohub,2013-01-31 11:58:00,
2013-01-31 07:00:00,26.4,15.6,29.68,West,270,5.0,15.0,63,0.00,,,0.13,meteohub,2013-01-31 12:00:00,
2013-01-31 07:02:00,26.4,15.6,29.68,NW,315,7.0,15.0,63,0.00,,,0.13,meteohub,2013-01-31 12:02:00,
2013-01-31 07:04:00,26.4,15.6,29.68,West,270,4.0,15.0,63,0.00,,,0.13,meteohub,2013-01-31 12:04:00,
2013-01-31 07:06:00,26.4,15.6,29.68,WSW,248,7.0,15.0,63,0.00,,,0.13,meteohub,2013-01-31 12:06:00,
2013-01-31 07:07:00,26.4,15.6,29.68,WSW,248,2.0,15.0,63,0.00,,,0.13,meteohub,2013-01-31 12:07:00,
2013-01-31 07:08:00,26.4,15.6,29.68,WSW,248,2.0,15.0,63,0.00,,,0.13,meteohub,2013-01-31 12:08:00,
2013-01-31 07:09:00,26.4,15.6,29.68,WSW,248,2.0,15.0,63,0.00,,,0.13,meteohub,2013-01-31 12:09:00,
2013-01-31 07:12:00,26.4,15.6,29.68,West,270,13.0,15.0,63,0.00,,,0.13,meteohub,2013-01-31 12:12:00,
2013-01-31 07:13:00,26.2,15.4,29.69,West,270,9.0,15.0,63,0.00,,,0.13,meteohub,2013-01-31 12:13:00,
2013-01-31 07:14:00,26.4,15.6,29.69,NW,315,21.0,21.0,63,0.00,,,0.13,meteohub,2013-01-31 12:14:00,
2013-01-31 07:16:00,26.2,15.4,29.70,West,270,12.0,15.0,63,0.00,,,0.13,meteohub,2013-01-31 12:16:00,
2013-01-31 07:17:00,26.2,15.4,29.70,West,270,12.0,15.0,63,0.00,,,0.13,meteohub,2013-01-31 12:17:00,
2013-01-31 07:18:00,26.2,15.4,29.70,WSW,248,21.0,21.0,63,0.00,,,0.13,meteohub,2013-01-31 12:18:00,
2013-01-31 07:20:00,26.2,15.4,29.69,NW,315,18.0,21.0,63,0.00,,,0.13,meteohub,2013-01-31 12:20:00,
2013-01-31 07:21:00,26.1,15.3,29.70,West,270,12.0,21.0,63,0.00,,,0.13,meteohub,2013-01-31 12:21:00,
2013-01-31 07:23:00,26.1,15.3,29.70,West,270,8.0,21.0,63,0.00,,,0.13,meteohub,2013-01-31 12:23:00,
2013-01-31 07:24:00,26.1,15.3,29.70,West,270,8.0,21.0,63,0.00,,,0.13,meteohub,2013-01-31 12:24:00,
2013-01-31 07:27:00,25.9,15.1,29.70,WSW,248,5.0,21.0,63,0.00,,,0.13,meteohub,2013-01-31 12:27:00,
2013-01-31 07:28:00,25.9,15.1,29.70,North,0,8.0,21.0,63,0.00,,,0.13,meteohub,2013-01-31 12:28:00,
2013-01-31 07:29:00,25.9,15.1,29.70,North,0,8.0,21.0,63,0.00,,,0.13,meteohub,2013-01-31 12:29:00,
2013-01-31 07:33:00,25.7,14.9,29.70,WSW,248,10.0,21.0,63,0.00,,,0.13,meteohub,2013-01-31 12:33:00,
2013-01-31 07:34:00,25.7,14.9,29.70,West,270,4.0,21.0,63,0.00,,,0.13,meteohub,2013-01-31 12:34:00,
2013-01-31 07:38:00,25.5,14.4,29.71,West,270,8.0,21.0,62,0.00,,,0.13,meteohub,2013-01-31 12:38:00,
2013-01-31 07:39:00,25.5,14.7,29.71,WSW,248,18.0,21.0,63,0.00,,,0.13,meteohub,2013-01-31 12:39:00,
2013-01-31 07:40:00,25.5,14.4,29.71,West,270,12.0,21.0,62,0.00,,,0.13,meteohub,2013-01-31 12:40:00,
2013-01-31 07:44:00,25.3,14.2,29.71,North,0,6.0,31.0,62,0.00,,,0.13,meteohub,2013-01-31 12:44:00,
2013-01-31 07:45:00,25.3,14.2,29.71,WSW,248,10.0,31.0,62,0.00,,,0.13,meteohub,2013-01-31 12:45:00,
2013-01-31 07:46:00,25.3,14.2,29.71,NW,315,7.0,31.0,62,0.00,,,0.13,meteohub,2013-01-31 12:46:00,
2013-01-31 07:47:00,25.3,14.2,29.71,NW,315,7.0,31.0,62,0.00,,,0.13,meteohub,2013-01-31 12:47:00,
2013-01-31 07:49:00,25.3,14.2,29.71,West,270,10.0,31.0,62,0.00,,,0.13,meteohub,2013-01-31 12:49:00,
2013-01-31 07:50:00,25.2,14.0,29.71,North,0,8.0,31.0,62,0.00,,,0.13,meteohub,2013-01-31 12:50:00,
2013-01-31 07:52:00,25.2,14.0,29.71,WSW,248,15.0,31.0,62,0.00,,,0.13,meteohub,2013-01-31 12:52:00,
2013-01-31 07:55:00,25.2,14.0,29.71,NE,45,17.0,17.0,62,0.00,,,0.13,meteohub,2013-01-31 12:55:00,
2013-01-31 07:57:00,25.0,13.8,29.71,WSW,248,9.0,15.0,62,0.00,,,0.13,meteohub,2013-01-31 12:57:00,
2013-01-31 07:58:00,25.0,13.8,29.72,WSW,248,14.0,15.0,62,0.00,,,0.13,meteohub,2013-01-31 12:58:00,
2013-01-31 08:01:00,25.0,13.8,29.72,West,270,8.0,17.0,62,0.00,,,0.13,meteohub,2013-01-31 13:01:00,
2013-01-31 08:02:00,25.0,13.8,29.72,WSW,248,4.0,17.0,62,0.00,,,0.13,meteohub,2013-01-31 13:02:00,
2013-01-31 08:03:00,25.0,13.8,29.72,WSW,248,4.0,17.0,62,0.00,,,0.13,meteohub,2013-01-31 13:03:00,
2013-01-31 08:08:00,25.0,13.8,29.72,West,270,11.0,17.0,62,0.00,,,0.13,meteohub,2013-01-31 13:08:00,
2013-01-31 08:09:00,25.0,13.8,29.72,West,270,11.0,17.0,62,0.00,,,0.13,meteohub,2013-01-31 13:09:00,
2013-01-31 08:13:00,24.8,13.6,29.73,North,0,9.0,17.0,62,0.00,,,0.13,meteohub,2013-01-31 13:13:00,
2013-01-31 08:14:00,24.8,13.6,29.72,West,270,17.0,17.0,62,0.00,,,0.13,meteohub,2013-01-31 13:14:00,
2013-01-31 08:15:00,25.0,13.8,29.73,West,270,15.0,23.0,62,0.00,,,0.13,meteohub,2013-01-31 13:15:00,
2013-01-31 08:18:00,24.8,13.6,29.72,WSW,248,16.0,23.0,62,0.00,,,0.13,meteohub,2013-01-31 13:18:00,
2013-01-31 08:19:00,24.8,13.6,29.72,WSW,248,16.0,23.0,62,0.00,,,0.13,meteohub,2013-01-31 13:19:00,
2013-01-31 08:21:00,24.8,13.6,29.73,WSW,248,15.0,23.0,62,0.00,,,0.13,meteohub,2013-01-31 13:21:00,
2013-01-31 08:24:00,24.6,13.5,29.72,WNW,293,9.0,23.0,62,0.00,,,0.13,meteohub,2013-01-31 13:24:00,
2013-01-31 08:25:00,24.6,13.5,29.73,WSW,248,11.0,23.0,62,0.00,,,0.13,meteohub,2013-01-31 13:25:00,
2013-01-31 08:27:00,24.6,13.5,29.73,West,270,21.0,21.0,62,0.00,,,0.13,meteohub,2013-01-31 13:27:00,
2013-01-31 08:29:00,24.6,13.5,29.73,WSW,248,8.0,18.0,62,0.00,,,0.13,meteohub,2013-01-31 13:29:00,
2013-01-31 08:30:00,24.6,13.5,29.73,West,270,12.0,18.0,62,0.00,,,0.13,meteohub,2013-01-31 13:30:00,
2013-01-31 08:32:00,24.4,13.3,29.73,WSW,248,9.0,21.0,62,0.00,,,0.13,meteohub,2013-01-31 13:32:00,
2013-01-31 08:35:00,24.4,13.3,29.73,NW,315,11.0,21.0,62,0.00,,,0.13,meteohub,2013-01-31 13:35:00,
2013-01-31 08:37:00,24.4,13.3,29.74,NW,315,10.0,21.0,62,0.00,,,0.13,meteohub,2013-01-31 13:37:00,
2013-01-31 08:38:00,24.4,13.3,29.74,West,270,12.0,21.0,62,0.00,,,0.13,meteohub,2013-01-31 13:38:00,
2013-01-31 08:40:00,24.4,13.3,29.74,WSW,248,9.0,21.0,62,0.00,,,0.13,meteohub,2013-01-31 13:40:00,
2013-01-31 08:41:00,24.3,13.1,29.74,WSW,248,11.0,21.0,62,0.00,,,0.13,meteohub,2013-01-31 13:41:00,
2013-01-31 08:42:00,24.3,13.1,29.74,West,270,13.0,21.0,62,0.00,,,0.13,meteohub,2013-01-31 13:42:00,
2013-01-31 08:43:00,24.3,13.1,29.73,NW,315,11.0,21.0,62,0.00,,,0.13,meteohub,2013-01-31 13:43:00,
2013-01-31 08:46:00,24.3,13.1,29.74,West,270,4.0,15.0,62,0.00,,,0.13,meteohub,2013-01-31 13:46:00,
2013-01-31 08:49:00,24.4,13.3,29.74,West,270,11.0,15.0,62,0.00,,,0.13,meteohub,2013-01-31 13:49:00,
2013-01-31 08:50:00,24.3,13.1,29.74,WSW,248,16.0,16.0,62,0.00,,,0.13,meteohub,2013-01-31 13:50:00,
2013-01-31 08:51:00,24.3,13.1,29.74,WSW,248,11.0,15.0,62,0.00,,,0.13,meteohub,2013-01-31 13:51:00,
2013-01-31 08:52:00,24.3,13.1,29.74,NW,315,8.0,15.0,62,0.00,,,0.13,meteohub,2013-01-31 13:52:00,
2013-01-31 08:54:00,24.3,13.1,29.75,West,270,12.0,15.0,62,0.00,,,0.13,meteohub,2013-01-31 13:54:00,
2013-01-31 08:55:00,24.1,12.6,29.75,NW,315,23.0,23.0,61,0.00,,,0.13,meteohub,2013-01-31 13:55:00,
2013-01-31 08:57:00,24.1,12.6,29.74,WSW,248,9.0,16.0,61,0.00,,,0.13,meteohub,2013-01-31 13:57:00,
2013-01-31 09:00:00,23.9,12.4,29.75,NW,315,4.0,16.0,61,0.00,,,0.13,meteohub,2013-01-31 14:00:00,
2013-01-31 09:01:00,23.7,12.2,29.74,West,270,12.0,23.0,61,0.00,,,0.13,meteohub,2013-01-31 14:01:00,
2013-01-31 09:02:00,23.7,12.2,29.75,West,270,12.0,23.0,61,0.00,,,0.13,meteohub,2013-01-31 14:02:00,
2013-01-31 09:04:00,23.7,12.2,29.75,WSW,248,19.0,23.0,61,0.00,,,0.13,meteohub,2013-01-31 14:04:00,
2013-01-31 09:06:00,23.9,12.4,29.74,West,270,13.0,23.0,61,0.00,,,0.13,meteohub,2013-01-31 14:06:00,
2013-01-31 09:07:00,23.9,12.4,29.74,WSW,248,17.0,23.0,61,0.00,,,0.13,meteohub,2013-01-31 14:07:00,
2013-01-31 09:09:00,23.7,12.2,29.75,NE,45,9.0,23.0,61,0.00,,,0.13,meteohub,2013-01-31 14:09:00,
2013-01-31 09:11:00,23.9,12.4,29.74,WSW,248,19.0,23.0,61,0.00,,,0.13,meteohub,2013-01-31 14:11:00,
2013-01-31 09:12:00,23.9,12.4,29.74,West,270,15.0,23.0,61,0.00,,,0.13,meteohub,2013-01-31 14:12:00,
2013-01-31 09:13:00,23.9,12.4,29.74,WSW,248,19.0,23.0,61,0.00,,,0.13,meteohub,2013-01-31 14:13:00,
2013-01-31 09:15:00,23.9,12.4,29.75,West,270,31.0,31.0,61,0.00,,,0.13,meteohub,2013-01-31 14:15:00,
2013-01-31 09:17:00,23.9,12.4,29.74,West,270,31.0,31.0,61,0.00,,,0.13,meteohub,2013-01-31 14:17:00,
2013-01-31 09:19:00,23.7,11.8,29.74,NW,315,15.0,22.0,60,0.00,,,0.13,meteohub,2013-01-31 14:19:00,
2013-01-31 09:21:00,23.9,12.0,29.75,West,270,8.0,31.0,60,0.00,,,0.13,meteohub,2013-01-31 14:21:00,
2013-01-31 09:22:00,23.9,12.0,29.75,NW,315,9.0,31.0,60,0.00,,,0.13,meteohub,2013-01-31 14:22:00,
2013-01-31 09:24:00,24.1,12.2,29.75,WSW,248,7.0,31.0,60,0.00,,,0.13,meteohub,2013-01-31 14:24:00,
2013-01-31 09:27:00,23.7,11.5,29.75,South,180,14.0,31.0,59,0.00,,,0.13,meteohub,2013-01-31 14:27:00,
2013-01-31 09:28:00,23.7,11.5,29.75,NW,315,13.0,31.0,59,0.00,,,0.13,meteohub,2013-01-31 14:28:00,
2013-01-31 09:30:00,23.5,11.3,29.76,WSW,248,17.0,31.0,59,0.00,,,0.13,meteohub,2013-01-31 14:30:00,
2013-01-31 09:33:00,23.4,10.8,29.76,West,270,13.0,31.0,58,0.00,,,0.13,meteohub,2013-01-31 14:33:00,
2013-01-31 09:34:00,23.4,10.8,29.76,NW,315,11.0,31.0,58,0.00,,,0.13,meteohub,2013-01-31 14:34:00,
2013-01-31 09:35:00,23.4,10.8,29.75,WSW,248,12.0,26.0,58,0.00,,,0.13,meteohub,2013-01-31 14:35:00,
2013-01-31 09:38:00,23.4,10.4,29.76,West,270,11.0,26.0,57,0.00,,,0.13,meteohub,2013-01-31 14:38:00,
2013-01-31 09:39:00,23.4,10.4,29.75,West,270,4.0,26.0,57,0.00,,,0.13,meteohub,2013-01-31 14:39:00,
2013-01-31 09:40:00,23.4,10.4,29.75,West,270,4.0,26.0,57,0.00,,,0.13,meteohub,2013-01-31 14:40:00,
2013-01-31 09:41:00,23.4,10.4,29.76,West,270,11.0,26.0,57,0.00,,,0.13,meteohub,2013-01-31 14:41:00,
2013-01-31 09:44:00,23.4,10.0,29.76,West,270,17.0,26.0,56,0.00,,,0.13,meteohub,2013-01-31 14:44:00,
2013-01-31 09:45:00,23.4,10.0,29.75,NE,45,9.0,26.0,56,0.00,,,0.13,meteohub,2013-01-31 14:45:00,
2013-01-31 09:47:00,23.4,10.0,29.76,South,180,15.0,17.0,56,0.00,,,0.13,meteohub,2013-01-31 14:47:00,
2013-01-31 09:50:00,23.2,9.3,29.76,West,270,13.0,17.0,55,0.00,,,0.13,meteohub,2013-01-31 14:50:00,
2013-01-31 09:52:00,23.2,9.3,29.76,WSW,248,17.0,19.0,55,0.00,,,0.13,meteohub,2013-01-31 14:52:00,
2013-01-31 09:56:00,23.0,8.8,29.76,WSW,248,15.0,19.0,54,0.00,,,0.13,meteohub,2013-01-31 14:56:00,
2013-01-31 09:57:00,23.0,8.8,29.76,WSW,248,15.0,19.0,54,0.00,,,0.13,meteohub,2013-01-31 14:57:00,
2013-01-31 09:58:00,23.0,8.8,29.77,West,270,21.0,21.0,54,0.00,,,0.13,meteohub,2013-01-31 14:58:00,
2013-01-31 10:01:00,23.0,8.4,29.77,West,270,11.0,19.0,53,0.00,,,0.13,meteohub,2013-01-31 15:01:00,
2013-01-31 10:02:00,23.0,8.4,29.77,West,270,11.0,19.0,53,0.00,,,0.13,meteohub,2013-01-31 15:02:00,
2013-01-31 10:03:00,23.0,8.4,29.77,West,270,8.0,19.0,53,0.00,,,0.13,meteohub,2013-01-31 15:03:00,
2013-01-31 10:04:00,23.0,8.4,29.77,West,270,8.0,19.0,53,0.00,,,0.13,meteohub,2013-01-31 15:04:00,
2013-01-31 10:06:00,23.0,8.4,29.77,SSW,203,14.0,21.0,53,0.00,,,0.13,meteohub,2013-01-31 15:06:00,
2013-01-31 10:07:00,23.0,8.4,29.77,North,0,11.0,21.0,53,0.00,,,0.13,meteohub,2013-01-31 15:07:00,
2013-01-31 10:09:00,23.0,8.4,29.77,NW,315,11.0,21.0,53,0.00,,,0.13,meteohub,2013-01-31 15:09:00,
2013-01-31 10:10:00,23.0,8.4,29.77,WNW,293,8.0,21.0,53,0.00,,,0.13,meteohub,2013-01-31 15:10:00,
2013-01-31 10:11:00,23.0,8.4,29.77,WSW,248,6.0,21.0,53,0.00,,,0.13,meteohub,2013-01-31 15:11:00,
2013-01-31 10:13:00,23.0,8.4,29.77,West,270,5.0,21.0,53,0.00,,,0.13,meteohub,2013-01-31 15:13:00,
2013-01-31 10:15:00,23.2,8.6,29.77,WSW,248,17.0,21.0,53,0.00,,,0.13,meteohub,2013-01-31 15:15:00,
2013-01-31 10:16:00,23.2,8.6,29.77,West,270,15.0,17.0,53,0.00,,,0.13,meteohub,2013-01-31 15:16:00,
2013-01-31 10:18:00,23.0,8.4,29.77,WSW,248,33.0,33.0,53,0.00,,,0.13,meteohub,2013-01-31 15:18:00,
2013-01-31 10:20:00,22.8,8.2,29.77,WSW,248,8.0,33.0,53,0.00,,,0.13,meteohub,2013-01-31 15:20:00,
2013-01-31 10:21:00,23.0,8.4,29.78,NW,315,11.0,33.0,53,0.00,,,0.13,meteohub,2013-01-31 15:21:00,
2013-01-31 10:23:00,22.8,8.2,29.78,NE,45,11.0,33.0,53,0.00,,,0.13,meteohub,2013-01-31 15:23:00,
2013-01-31 10:26:00,23.0,8.4,29.78,NW,315,17.0,33.0,53,0.00,,,0.13,meteohub,2013-01-31 15:26:00,
2013-01-31 10:28:00,23.0,8.4,29.78,West,270,17.0,33.0,53,0.00,,,0.13,meteohub,2013-01-31 15:28:00,
2013-01-31 10:29:00,23.0,8.4,29.78,West,270,17.0,33.0,53,0.00,,,0.13,meteohub,2013-01-31 15:29:00,
2013-01-31 10:31:00,22.8,8.2,29.78,SSE,158,17.0,33.0,53,0.00,,,0.13,meteohub,2013-01-31 15:31:00,
2013-01-31 10:32:00,22.8,8.2,29.78,SSE,158,17.0,33.0,53,0.00,,,0.13,meteohub,2013-01-31 15:32:00,
2013-01-31 10:33:00,22.8,8.2,29.78,NW,315,10.0,33.0,53,0.00,,,0.13,meteohub,2013-01-31 15:33:00,
2013-01-31 10:34:00,22.8,8.2,29.78,West,270,26.0,33.0,53,0.00,,,0.13,meteohub,2013-01-31 15:34:00,
2013-01-31 10:37:00,22.8,8.2,29.78,West,270,19.0,26.0,53,0.00,,,0.13,meteohub,2013-01-31 15:37:00,
2013-01-31 10:39:00,22.6,8.1,29.78,West,270,14.0,26.0,53,0.00,,,0.13,meteohub,2013-01-31 15:39:00,
2013-01-31 10:41:00,22.8,8.2,29.78,NW,315,11.0,26.0,53,0.00,,,0.13,meteohub,2013-01-31 15:41:00,
2013-01-31 10:43:00,23.2,8.6,29.78,South,180,3.0,26.0,53,0.00,,,0.13,meteohub,2013-01-31 15:43:00,
2013-01-31 10:45:00,23.5,9.0,29.79,WSW,248,14.0,26.0,53,0.00,,,0.13,meteohub,2013-01-31 15:45:00,
2013-01-31 10:46:00,23.5,9.0,29.78,North,0,15.0,26.0,53,0.00,,,0.13,meteohub,2013-01-31 15:46:00,
2013-01-31 10:48:00,23.4,8.4,29.78,NW,315,16.0,26.0,52,0.00,,,0.13,meteohub,2013-01-31 15:48:00,
2013-01-31 10:50:00,23.4,8.4,29.79,WSW,248,12.0,26.0,52,0.00,,,0.13,meteohub,2013-01-31 15:50:00,
2013-01-31 10:52:00,23.2,7.7,29.78,WSW,248,13.0,26.0,51,0.00,,,0.13,meteohub,2013-01-31 15:52:00,
2013-01-31 10:53:00,23.2,7.3,29.79,WNW,293,15.0,26.0,50,0.00,,,0.13,meteohub,2013-01-31 15:53:00,
2013-01-31 10:54:00,23.2,7.3,29.79,WSW,248,14.0,26.0,50,0.00,,,0.13,meteohub,2013-01-31 15:54:00,
2013-01-31 10:55:00,23.2,7.3,29.78,West,270,15.0,26.0,50,0.00,,,0.13,meteohub,2013-01-31 15:55:00,
2013-01-31 10:58:00,23.2,6.8,29.79,WSW,248,9.0,26.0,49,0.00,,,0.13,meteohub,2013-01-31 15:58:00,
2013-01-31 11:00:00,22.8,6.1,29.79,West,270,21.0,26.0,48,0.00,,,0.13,meteohub,2013-01-31 16:00:00,
2013-01-31 11:03:00,22.3,5.2,29.81,South,180,12.0,26.0,47,0.00,,,0.13,meteohub,2013-01-31 16:03:00,
2013-01-31 11:05:00,21.9,4.8,29.80,WSW,248,19.0,26.0,47,0.00,,,0.13,meteohub,2013-01-31 16:05:00,
2013-01-31 11:09:00,21.6,4.5,29.81,WSW,248,15.0,21.0,47,0.00,,,0.13,meteohub,2013-01-31 16:09:00,
2013-01-31 11:11:00,21.7,4.6,29.81,WSW,248,9.0,21.0,47,0.00,,,0.13,meteohub,2013-01-31 16:11:00,
2013-01-31 11:15:00,21.9,4.3,29.82,WSW,248,23.0,23.0,46,0.00,,,0.13,meteohub,2013-01-31 16:15:00,
2013-01-31 11:16:00,21.9,3.7,29.82,WSW,248,16.0,20.0,45,0.00,,,0.13,meteohub,2013-01-31 16:16:00,
2013-01-31 11:20:00,21.7,2.7,29.82,NW,315,10.0,23.0,43,0.00,,,0.13,meteohub,2013-01-31 16:20:00,
2013-01-31 11:21:00,21.7,2.7,29.81,WSW,248,11.0,23.0,43,0.00,,,0.13,meteohub,2013-01-31 16:21:00,
2013-01-31 11:22:00,21.7,2.7,29.81,WSW,248,11.0,23.0,43,0.00,,,0.13,meteohub,2013-01-31 16:22:00,
2013-01-31 11:27:00,21.6,1.0,29.82,East,90,17.0,23.0,40,0.00,,,0.13,meteohub,2013-01-31 16:27:00,
2013-01-31 11:32:00,21.6,-1.3,29.81,WNW,293,17.0,22.0,36,0.00,,,0.13,meteohub,2013-01-31 16:32:00,
2013-01-31 11:33:00,21.4,-3.3,29.82,West,270,7.0,22.0,33,0.00,,,0.13,meteohub,2013-01-31 16:33:00,
2013-01-31 11:37:00,21.4,-4.5,29.82,West,270,12.0,27.0,31,0.00,,,0.13,meteohub,2013-01-31 16:37:00,
2013-01-31 11:38:00,21.4,-4.5,29.82,West,270,12.0,27.0,31,0.00,,,0.13,meteohub,2013-01-31 16:38:00,
2013-01-31 11:39:00,21.4,-5.3,29.82,NW,315,18.0,27.0,30,0.00,,,0.13,meteohub,2013-01-31 16:39:00,
2013-01-31 11:42:00,21.7,-5.6,29.82,NW,315,27.0,27.0,29,0.00,,,0.13,meteohub,2013-01-31 16:42:00,
2013-01-31 11:43:00,21.7,-5.6,29.82,West,270,15.0,27.0,29,0.00,,,0.13,meteohub,2013-01-31 16:43:00,
2013-01-31 11:44:00,21.7,-6.3,29.81,NW,315,20.0,27.0,28,0.00,,,0.13,meteohub,2013-01-31 16:44:00,
2013-01-31 11:46:00,21.7,-7.1,29.82,WSW,248,14.0,27.0,27,0.00,,,0.13,meteohub,2013-01-31 16:46:00,
2013-01-31 11:48:00,21.9,-7.8,29.82,WSW,248,12.0,27.0,26,0.00,,,0.13,meteohub,2013-01-31 16:48:00,
2013-01-31 11:50:00,21.9,-7.8,29.81,West,270,15.0,27.0,26,0.00,,,0.13,meteohub,2013-01-31 16:50:00,
2013-01-31 11:51:00,21.9,-7.8,29.81,WSW,248,17.0,27.0,26,0.00,,,0.13,meteohub,2013-01-31 16:51:00,
2013-01-31 11:53:00,21.9,-8.5,29.82,West,270,18.0,27.0,25,0.00,,,0.13,meteohub,2013-01-31 16:53:00,
2013-01-31 11:54:00,21.9,-9.4,29.82,West,270,14.0,27.0,24,0.00,,,0.13,meteohub,2013-01-31 16:54:00,
2013-01-31 11:55:00,21.9,-9.4,29.82,West,270,14.0,27.0,24,0.00,,,0.13,meteohub,2013-01-31 16:55:00,
2013-01-31 11:57:00,21.9,-9.4,29.82,WNW,293,23.0,27.0,24,0.00,,,0.13,meteohub,2013-01-31 16:57:00,
2013-01-31 11:59:00,21.9,-10.3,29.81,WSW,248,9.0,27.0,23,0.00,,,0.13,meteohub,2013-01-31 16:59:00,
2013-01-31 12:00:00,22.1,-10.1,29.82,SE,135,15.0,25.0,23,0.00,,,0.13,meteohub,2013-01-31 17:00:00,
2013-01-31 12:02:00,21.9,-11.2,29.82,SE,135,19.0,25.0,22,0.00,,,0.13,meteohub,2013-01-31 17:02:00,
2013-01-31 12:04:00,22.1,-12.8,29.82,NW,315,6.0,25.0,20,0.00,,,0.13,meteohub,2013-01-31 17:04:00,
2013-01-31 12:06:00,22.3,-11.7,29.82,WSW,248,13.0,25.0,21,0.00,,,0.13,meteohub,2013-01-31 17:06:00,
2013-01-31 12:07:00,22.5,-10.7,29.82,NW,315,4.0,25.0,22,0.00,,,0.13,meteohub,2013-01-31 17:07:00,
2013-01-31 12:09:00,22.5,-12.6,29.82,NW,315,11.0,25.0,20,0.00,,,0.13,meteohub,2013-01-31 17:09:00,
2013-01-31 12:10:00,22.5,-12.6,29.82,NW,315,11.0,23.0,20,0.00,,,0.13,meteohub,2013-01-31 17:10:00,
2013-01-31 12:13:00,22.5,-12.6,29.82,WSW,248,11.0,23.0,20,0.00,,,0.13,meteohub,2013-01-31 17:13:00,
2013-01-31 12:14:00,22.5,-12.6,29.82,WSW,248,14.0,23.0,20,0.00,,,0.13,meteohub,2013-01-31 17:14:00,
2013-01-31 12:15:00,22.6,-12.5,29.82,WSW,248,7.0,23.0,20,0.00,,,0.13,meteohub,2013-01-31 17:15:00,
2013-01-31 12:18:00,22.6,-12.5,29.82,WSW,248,10.0,19.0,20,0.00,,,0.13,meteohub,2013-01-31 17:18:00,
2013-01-31 12:19:00,22.8,-11.4,29.82,South,180,10.0,19.0,21,0.00,,,0.13,meteohub,2013-01-31 17:19:00,
2013-01-31 12:20:00,22.8,-12.3,29.82,North,0,23.0,23.0,20,0.00,,,0.13,meteohub,2013-01-31 17:20:00,
2013-01-31 12:21:00,22.6,-13.4,29.82,West,270,27.0,27.0,19,0.00,,,0.13,meteohub,2013-01-31 17:21:00,
2013-01-31 12:24:00,22.5,-13.5,29.82,NW,315,21.0,21.0,19,0.00,,,0.13,meteohub,2013-01-31 17:24:00,
2013-01-31 12:25:00,22.5,-12.6,29.82,WSW,248,14.0,17.0,20,0.00,,,0.13,meteohub,2013-01-31 17:25:00,
2013-01-31 12:27:00,22.5,-12.6,29.82,WSW,248,11.0,27.0,20,0.00,,,0.13,meteohub,2013-01-31 17:27:00,
2013-01-31 12:29:00,22.5,-12.6,29.82,WSW,248,11.0,27.0,20,0.00,,,0.13,meteohub,2013-01-31 17:29:00,
2013-01-31 12:30:00,22.5,-12.6,29.82,WSW,248,4.0,27.0,20,0.00,,,0.13,meteohub,2013-01-31 17:30:00,
2013-01-31 12:31:00,22.5,-11.6,29.82,West,270,10.0,27.0,21,0.00,,,0.13,meteohub,2013-01-31 17:31:00,
2013-01-31 12:33:00,22.3,-11.7,29.82,West,270,6.0,27.0,21,0.00,,,0.13,meteohub,2013-01-31 17:33:00,
2013-01-31 12:35:00,22.5,-10.7,29.81,WSW,248,22.0,27.0,22,0.00,,,0.13,meteohub,2013-01-31 17:35:00,
2013-01-31 12:36:00,22.5,-10.7,29.81,NW,315,9.0,27.0,22,0.00,,,0.13,meteohub,2013-01-31 17:36:00,
2013-01-31 12:38:00,22.5,-11.6,29.82,South,180,8.0,27.0,21,0.00,,,0.13,meteohub,2013-01-31 17:38:00,
2013-01-31 12:40:00,22.6,-10.5,29.82,West,270,19.0,22.0,22,0.00,,,0.13,meteohub,2013-01-31 17:40:00,
2013-01-31 12:41:00,22.6,-10.5,29.82,WSW,248,10.0,22.0,22,0.00,,,0.13,meteohub,2013-01-31 17:41:00,
2013-01-31 12:42:00,22.5,-10.7,29.82,South,180,11.0,22.0,22,0.00,,,0.13,meteohub,2013-01-31 17:42:00,
2013-01-31 12:43:00,22.5,-10.7,29.82,WSW,248,4.0,22.0,22,0.00,,,0.13,meteohub,2013-01-31 17:43:00,
2013-01-31 12:45:00,22.5,-9.8,29.82,WSW,248,7.0,22.0,23,0.00,,,0.13,meteohub,2013-01-31 17:45:00,
2013-01-31 12:46:00,22.3,-9.9,29.82,WSW,248,8.0,22.0,23,0.00,,,0.13,meteohub,2013-01-31 17:46:00,
2013-01-31 12:47:00,22.3,-9.9,29.82,South,180,17.0,22.0,23,0.00,,,0.13,meteohub,2013-01-31 17:47:00,
2013-01-31 12:49:00,22.1,-9.2,29.82,WSW,248,10.0,22.0,24,0.00,,,0.13,meteohub,2013-01-31 17:49:00,
2013-01-31 12:51:00,22.1,-8.3,29.82,WNW,293,11.0,19.0,25,0.00,,,0.13,meteohub,2013-01-31 17:51:00,
2013-01-31 12:52:00,21.9,-7.8,29.83,West,270,9.0,19.0,26,0.00,,,0.13,meteohub,2013-01-31 17:52:00,
2013-01-31 12:56:00,21.7,-8.0,29.82,West,270,18.0,19.0,26,0.00,,,0.13,meteohub,2013-01-31 17:56:00,
2013-01-31 12:57:00,21.9,-7.8,29.82,North,0,17.0,19.0,26,0.00,,,0.13,meteohub,2013-01-31 17:57:00,
2013-01-31 12:58:00,21.9,-8.5,29.83,West,270,17.0,19.0,25,0.00,,,0.13,meteohub,2013-01-31 17:58:00,
2013-01-31 13:01:00,22.8,-6.9,29.82,South,180,7.0,22.0,26,0.00,,,0.13,meteohub,2013-01-31 18:01:00,
2013-01-31 13:02:00,22.8,-6.9,29.83,South,180,7.0,22.0,26,0.00,,,0.13,meteohub,2013-01-31 18:02:00,
2013-01-31 13:03:00,23.0,-6.9,29.83,WSW,248,6.0,22.0,26,0.00,,,0.13,meteohub,2013-01-31 18:03:00,
2013-01-31 13:06:00,23.2,-7.4,29.83,West,270,11.0,22.0,25,0.00,,,0.13,meteohub,2013-01-31 18:06:00,
2013-01-31 13:07:00,23.2,-8.3,29.83,WSW,248,7.0,22.0,24,0.00,,,0.13,meteohub,2013-01-31 18:07:00,
2013-01-31 13:09:00,23.0,-10.1,29.82,NW,315,13.0,22.0,22,0.00,,,0.13,meteohub,2013-01-31 18:09:00,
2013-01-31 13:11:00,22.6,-13.4,29.83,WSW,248,13.0,22.0,19,0.00,,,0.13,meteohub,2013-01-31 18:11:00,
2013-01-31 13:12:00,22.6,-13.4,29.83,WSW,248,17.0,22.0,19,0.00,,,0.13,meteohub,2013-01-31 18:12:00,
2013-01-31 13:15:00,22.6,-13.4,29.82,South,180,16.0,22.0,19,0.00,,,0.13,meteohub,2013-01-31 18:15:00,
2013-01-31 13:17:00,22.6,-13.4,29.83,West,270,6.0,17.0,19,0.00,,,0.13,meteohub,2013-01-31 18:17:00,
2013-01-31 13:18:00,22.6,-14.4,29.83,West,270,8.0,17.0,18,0.00,,,0.13,meteohub,2013-01-31 18:18:00,
2013-01-31 13:20:00,22.8,-14.4,29.82,West,270,17.0,17.0,18,0.00,,,0.13,meteohub,2013-01-31 18:20:00,
2013-01-31 13:23:00,23.0,-15.3,29.83,WSW,248,11.0,17.0,17,0.00,,,0.13,meteohub,2013-01-31 18:23:00,
2013-01-31 13:25:00,23.0,-16.6,29.83,West,270,8.0,17.0,16,0.00,,,0.13,meteohub,2013-01-31 18:25:00,
2013-01-31 13:28:00,23.2,-17.7,29.82,South,180,15.0,17.0,15,0.00,,,0.13,meteohub,2013-01-31 18:28:00,
2013-01-31 13:29:00,23.2,-17.7,29.82,South,180,15.0,17.0,15,0.00,,,0.13,meteohub,2013-01-31 18:29:00,
2013-01-31 13:30:00,23.2,-18.9,29.82,West,270,15.0,17.0,14,0.00,,,0.13,meteohub,2013-01-31 18:30:00,
2013-01-31 13:31:00,23.0,-19.1,29.82,NW,315,6.0,17.0,14,0.00,,,0.13,meteohub,2013-01-31 18:31:00,
2013-01-31 13:33:00,23.2,-18.9,29.82,WSW,248,11.0,17.0,14,0.00,,,0.13,meteohub,2013-01-31 18:33:00,
2013-01-31 13:34:00,23.2,-17.7,29.82,NW,315,6.0,17.0,15,0.00,,,0.13,meteohub,2013-01-31 18:34:00,
2013-01-31 13:36:00,23.2,-18.9,29.82,NW,315,17.0,17.0,14,0.00,,,0.13,meteohub,2013-01-31 18:36:00,
2013-01-31 13:37:00,23.4,-18.8,29.83,WSW,248,4.0,17.0,14,0.00,,,0.13,meteohub,2013-01-31 18:37:00,
2013-01-31 13:39:00,23.2,-20.4,29.82,NW,315,8.0,17.0,13,0.00,,,0.13,meteohub,2013-01-31 18:39:00,
2013-01-31 13:40:00,23.4,-20.2,29.83,WSW,248,14.0,17.0,13,0.00,,,0.13,meteohub,2013-01-31 18:40:00,
2013-01-31 13:41:00,23.4,-21.8,29.82,WSW,248,17.0,19.0,12,0.00,,,0.13,meteohub,2013-01-31 18:41:00,
2013-01-31 13:42:00,23.4,-23.4,29.82,WSW,248,16.0,19.0,11,0.00,,,0.13,meteohub,2013-01-31 18:42:00,
2013-01-31 13:45:00,23.2,-25.4,29.82,NW,315,17.0,19.0,10,0.00,,,0.13,meteohub,2013-01-31 18:45:00,
2013-01-31 13:47:00,23.2,23.2,29.82,NW,315,17.0,19.0,0,0.00,,,0.13,meteohub,2013-01-31 18:47:00,
2013-01-31 13:49:00,23.2,23.2,29.82,West,270,21.0,21.0,0,0.00,,,0.13,meteohub,2013-01-31 18:49:00,
2013-01-31 13:50:00,23.2,-25.4,29.82,West,270,15.0,19.0,10,0.00,,,0.13,meteohub,2013-01-31 18:50:00,
2013-01-31 13:52:00,23.4,-25.2,29.82,West,270,13.0,21.0,10,0.00,,,0.13,meteohub,2013-01-31 18:52:00,
2013-01-31 13:54:00,23.4,23.4,29.82,West,270,20.0,21.0,0,0.00,,,0.13,meteohub,2013-01-31 18:54:00,
2013-01-31 13:56:00,23.4,-25.2,29.83,WSW,248,10.0,21.0,10,0.00,,,0.13,meteohub,2013-01-31 18:56:00,
2013-01-31 13:57:00,23.4,23.4,29.82,West,270,21.0,21.0,0,0.00,,,0.13,meteohub,2013-01-31 18:57:00,
2013-01-31 13:59:00,23.5,23.5,29.83,WSW,248,21.0,21.0,0,0.00,,,0.13,meteohub,2013-01-31 18:59:00,
2013-01-31 14:01:00,23.7,23.7,29.83,WSW,248,17.0,23.0,0,0.00,,,0.13,meteohub,2013-01-31 19:01:00,
2013-01-31 14:02:00,23.7,23.7,29.83,WSW,248,17.0,23.0,0,0.00,,,0.13,meteohub,2013-01-31 19:02:00,
2013-01-31 14:03:00,23.7,23.7,29.83,WSW,248,12.0,23.0,0,0.00,,,0.13,meteohub,2013-01-31 19:03:00,
2013-01-31 14:04:00,23.7,23.7,29.83,WSW,248,8.0,23.0,0,0.00,,,0.13,meteohub,2013-01-31 19:04:00,
2013-01-31 14:06:00,23.9,23.9,29.82,North,0,21.0,23.0,0,0.00,,,0.13,meteohub,2013-01-31 19:06:00,
2013-01-31 14:08:00,24.1,24.1,29.83,WSW,248,11.0,23.0,0,0.00,,,0.13,meteohub,2013-01-31 19:08:00,
2013-01-31 14:09:00,24.3,24.3,29.83,South,180,21.0,23.0,0,0.00,,,0.13,meteohub,2013-01-31 19:09:00,
2013-01-31 14:12:00,24.6,24.6,29.83,West,270,18.0,21.0,0,0.00,,,0.13,meteohub,2013-01-31 19:12:00,
2013-01-31 14:14:00,25.0,25.0,29.83,West,270,12.0,21.0,0,0.00,,,0.13,meteohub,2013-01-31 19:14:00,
2013-01-31 14:15:00,25.0,25.0,29.83,WSW,248,13.0,21.0,0,0.00,,,0.13,meteohub,2013-01-31 19:15:00,
2013-01-31 14:17:00,25.0,25.0,29.83,WSW,248,13.0,21.0,0,0.00,,,0.13,meteohub,2013-01-31 19:17:00,
2013-01-31 14:19:00,24.6,24.6,29.83,West,270,8.0,21.0,0,0.00,,,0.13,meteohub,2013-01-31 19:19:00,
2013-01-31 14:20:00,24.4,24.4,29.83,WSW,248,17.0,21.0,0,0.00,,,0.13,meteohub,2013-01-31 19:20:00,
2013-01-31 14:23:00,23.9,23.9,29.84,WSW,248,13.0,24.0,0,0.00,,,0.13,meteohub,2013-01-31 19:23:00,
2013-01-31 14:24:00,23.7,23.7,29.83,NW,315,18.0,24.0,0,0.00,,,0.13,meteohub,2013-01-31 19:24:00,
2013-01-31 14:25:00,23.5,23.5,29.83,West,270,12.0,24.0,0,0.00,,,0.13,meteohub,2013-01-31 19:25:00,
2013-01-31 14:26:00,23.5,23.5,29.83,WSW,248,10.0,24.0,0,0.00,,,0.13,meteohub,2013-01-31 19:26:00,
2013-01-31 14:28:00,23.4,23.4,29.83,WSW,248,17.0,24.0,0,0.00,,,0.13,meteohub,2013-01-31 19:28:00,
2013-01-31 14:30:00,23.4,23.4,29.84,WSW,248,8.0,18.0,0,0.00,,,0.13,meteohub,2013-01-31 19:30:00,
2013-01-31 14:32:00,23.4,23.4,29.84,WSW,248,8.0,18.0,0,0.00,,,0.13,meteohub,2013-01-31 19:32:00,
2013-01-31 14:35:00,23.2,23.2,29.84,North,0,8.0,18.0,0,0.00,,,0.13,meteohub,2013-01-31 19:35:00,
2013-01-31 14:36:00,23.2,23.2,29.84,North,0,8.0,18.0,0,0.00,,,0.13,meteohub,2013-01-31 19:36:00,
2013-01-31 14:37:00,23.2,23.2,29.84,WSW,248,15.0,18.0,0,0.00,,,0.13,meteohub,2013-01-31 19:37:00,
2013-01-31 14:41:00,23.0,23.0,29.85,West,270,17.0,17.0,0,0.00,,,0.13,meteohub,2013-01-31 19:41:00,
2013-01-31 14:42:00,22.8,22.8,29.84,WSW,248,17.0,17.0,0,0.00,,,0.13,meteohub,2013-01-31 19:42:00,
2013-01-31 14:46:00,22.1,-26.1,29.85,NW,315,17.0,23.0,10,0.00,,,0.13,meteohub,2013-01-31 19:46:00,
2013-01-31 14:47:00,22.1,-26.1,29.85,NW,315,17.0,23.0,10,0.00,,,0.13,meteohub,2013-01-31 19:47:00,
2013-01-31 14:49:00,21.9,21.9,29.85,WSW,248,13.0,23.0,0,0.00,,,0.13,meteohub,2013-01-31 19:49:00,
2013-01-31 14:52:00,21.9,21.9,29.86,WNW,293,11.0,23.0,0,0.00,,,0.13,meteohub,2013-01-31 19:52:00,
2013-01-31 14:53:00,21.9,21.9,29.85,North,0,11.0,23.0,0,0.00,,,0.13,meteohub,2013-01-31 19:53:00,
2013-01-31 14:54:00,22.1,22.1,29.85,NW,315,14.0,23.0,0,0.00,,,0.13,meteohub,2013-01-31 19:54:00,
2013-01-31 14:58:00,22.1,22.1,29.86,NW,315,6.0,23.0,0,0.00,,,0.13,meteohub,2013-01-31 19:58:00,
2013-01-31 14:59:00,22.3,22.3,29.86,West,270,8.0,23.0,0,0.00,,,0.13,meteohub,2013-01-31 19:59:00,
2013-01-31 15:03:00,22.5,22.5,29.86,WSW,248,5.0,17.0,0,0.00,,,0.13,meteohub,2013-01-31 20:03:00,
2013-01-31 15:04:00,22.5,22.5,29.86,NW,315,6.0,17.0,0,0.00,,,0.13,meteohub,2013-01-31 20:04:00,
2013-01-31 15:05:00,22.6,22.6,29.86,WSW,248,14.0,17.0,0,0.00,,,0.13,meteohub,2013-01-31 20:05:00,
2013-01-31 15:09:00,22.6,22.6,29.87,WSW,248,3.0,17.0,0,0.00,,,0.13,meteohub,2013-01-31 20:09:00,
2013-01-31 15:10:00,22.6,22.6,29.86,NW,315,8.0,17.0,0,0.00,,,0.13,meteohub,2013-01-31 20:10:00,
2013-01-31 15:11:00,22.6,22.6,29.86,NW,315,5.0,15.0,0,0.00,,,0.13,meteohub,2013-01-31 20:11:00,
2013-01-31 15:14:00,22.5,22.5,29.87,West,270,16.0,16.0,0,0.00,,,0.13,meteohub,2013-01-31 20:14:00,
2013-01-31 15:15:00,22.5,22.5,29.86,South,180,2.0,15.0,0,0.00,,,0.13,meteohub,2013-01-31 20:15:00,
2013-01-31 15:17:00,22.5,22.5,29.87,WSW,248,7.0,23.0,0,0.00,,,0.13,meteohub,2013-01-31 20:17:00,
2013-01-31 15:20:00,22.5,22.5,29.87,South,180,15.0,23.0,0,0.00,,,0.13,meteohub,2013-01-31 20:20:00,
2013-01-31 15:21:00,22.8,22.8,29.87,North,0,6.0,23.0,0,0.00,,,0.13,meteohub,2013-01-31 20:21:00,
2013-01-31 15:25:00,22.8,22.8,29.87,NW,315,12.0,23.0,0,0.00,,,0.13,meteohub,2013-01-31 20:25:00,
2013-01-31 15:26:00,22.8,22.8,29.86,NW,315,17.0,23.0,0,0.00,,,0.13,meteohub,2013-01-31 20:26:00,
2013-01-31 15:27:00,22.8,22.8,29.87,WSW,248,14.0,23.0,0,0.00,,,0.13,meteohub,2013-01-31 20:27:00,
2013-01-31 15:28:00,22.8,22.8,29.87,WSW,248,14.0,23.0,0,0.00,,,0.13,meteohub,2013-01-31 20:28:00,
2013-01-31 15:30:00,22.6,22.6,29.87,WNW,293,7.0,23.0,0,0.00,,,0.13,meteohub,2013-01-31 20:30:00,
2013-01-31 15:32:00,22.6,22.6,29.87,WSW,248,9.0,26.0,0,0.00,,,0.13,meteohub,2013-01-31 20:32:00,
2013-01-31 15:34:00,22.5,22.5,29.87,NW,315,11.0,26.0,0,0.00,,,0.13,meteohub,2013-01-31 20:34:00,
2013-01-31 15:35:00,22.5,22.5,29.87,West,270,11.0,26.0,0,0.00,,,0.13,meteohub,2013-01-31 20:35:00,
2013-01-31 15:37:00,22.3,22.3,29.88,WSW,248,9.0,26.0,0,0.00,,,0.13,meteohub,2013-01-31 20:37:00,
2013-01-31 15:38:00,22.5,22.5,29.87,South,180,4.0,26.0,0,0.00,,,0.13,meteohub,2013-01-31 20:38:00,
2013-01-31 15:39:00,22.5,22.5,29.88,West,270,12.0,26.0,0,0.00,,,0.13,meteohub,2013-01-31 20:39:00,
2013-01-31 15:41:00,22.5,22.5,29.87,South,180,9.0,22.0,0,0.00,,,0.13,meteohub,2013-01-31 20:41:00,
2013-01-31 15:43:00,22.3,22.3,29.87,NW,315,12.0,22.0,0,0.00,,,0.13,meteohub,2013-01-31 20:43:00,
2013-01-31 15:44:00,22.3,22.3,29.87,NW,315,12.0,22.0,0,0.00,,,0.13,meteohub,2013-01-31 20:44:00,
2013-01-31 15:45:00,22.3,22.3,29.88,North,0,13.0,22.0,0,0.00,,,0.13,meteohub,2013-01-31 20:45:00,
2013-01-31 15:47:00,22.3,22.3,29.88,West,270,10.0,18.0,0,0.00,,,0.13,meteohub,2013-01-31 20:47:00,
2013-01-31 15:49:00,22.1,22.1,29.88,West,270,14.0,18.0,0,0.00,,,0.13,meteohub,2013-01-31 20:49:00,
2013-01-31 15:50:00,21.9,21.9,29.88,WSW,248,26.0,26.0,0,0.00,,,0.13,meteohub,2013-01-31 20:50:00,
2013-01-31 15:53:00,21.7,21.7,29.88,West,270,17.0,18.0,0,0.00,,,0.13,meteohub,2013-01-31 20:53:00,
2013-01-31 15:54:00,21.7,21.7,29.88,South,180,10.0,18.0,0,0.00,,,0.13,meteohub,2013-01-31 20:54:00,
2013-01-31 15:55:00,21.7,21.7,29.88,WSW,248,16.0,18.0,0,0.00,,,0.13,meteohub,2013-01-31 20:55:00,
2013-01-31 15:58:00,21.6,21.6,29.89,SE,135,14.0,26.0,0,0.00,,,0.13,meteohub,2013-01-31 20:58:00,
2013-01-31 16:00:00,21.6,21.6,29.89,West,270,12.0,26.0,0,0.00,,,0.13,meteohub,2013-01-31 21:00:00,
2013-01-31 16:01:00,21.6,21.6,29.89,NW,315,17.0,26.0,0,0.00,,,0.13,meteohub,2013-01-31 21:01:00,
2013-01-31 16:04:00,21.6,21.6,29.89,NW,315,9.0,26.0,0,0.00,,,0.13,meteohub,2013-01-31 21:04:00,
2013-01-31 16:05:00,21.6,21.6,29.89,WNW,293,11.0,26.0,0,0.00,,,0.13,meteohub,2013-01-31 21:05:00,
2013-01-31 16:06:00,21.4,21.4,29.90,WSW,248,21.0,23.0,0,0.00,,,0.13,meteohub,2013-01-31 21:06:00,
2013-01-31 16:10:00,21.4,21.4,29.90,WSW,248,11.0,23.0,0,0.00,,,0.13,meteohub,2013-01-31 21:10:00,
2013-01-31 16:11:00,21.4,21.4,29.90,NW,315,11.0,23.0,0,0.00,,,0.13,meteohub,2013-01-31 21:11:00,
2013-01-31 16:12:00,21.4,21.4,29.90,West,270,10.0,23.0,0,0.00,,,0.13,meteohub,2013-01-31 21:12:00,
2013-01-31 16:16:00,21.4,21.4,29.90,South,180,9.0,23.0,0,0.00,,,0.13,meteohub,2013-01-31 21:16:00,
2013-01-31 16:17:00,21.4,21.4,29.90,South,180,9.0,23.0,0,0.00,,,0.13,meteohub,2013-01-31 21:17:00,
2013-01-31 16:21:00,21.0,21.0,29.91,WSW,248,9.0,21.0,0,0.00,,,0.13,meteohub,2013-01-31 21:21:00,
2013-01-31 16:22:00,21.0,21.0,29.91,WSW,248,19.0,21.0,0,0.00,,,0.13,meteohub,2013-01-31 21:22:00,
2013-01-31 16:23:00,21.0,21.0,29.91,South,180,14.0,21.0,0,0.00,,,0.13,meteohub,2013-01-31 21:23:00,
2013-01-31 16:24:00,20.7,-27.4,29.91,NW,315,7.0,21.0,10,0.00,,,0.13,meteohub,2013-01-31 21:24:00,
2013-01-31 16:27:00,20.1,-21.5,29.91,North,0,3.0,19.0,14,0.00,,,0.13,meteohub,2013-01-31 21:27:00,
2013-01-31 16:29:00,19.9,-20.4,29.91,South,180,8.0,19.0,15,0.00,,,0.13,meteohub,2013-01-31 21:29:00,
2013-01-31 16:30:00,19.9,-21.6,29.91,West,270,10.0,19.0,14,0.00,,,0.13,meteohub,2013-01-31 21:30:00,
2013-01-31 16:32:00,19.9,-21.6,29.91,NW,315,14.0,19.0,14,0.00,,,0.13,meteohub,2013-01-31 21:32:00,
2013-01-31 16:33:00,20.1,-24.3,29.91,NW,315,15.0,19.0,12,0.00,,,0.13,meteohub,2013-01-31 21:33:00,
2013-01-31 16:34:00,20.1,-22.9,29.91,NW,315,11.0,19.0,13,0.00,,,0.13,meteohub,2013-01-31 21:34:00,
2013-01-31 16:35:00,20.3,-26.0,29.91,WSW,248,8.0,19.0,11,0.00,,,0.13,meteohub,2013-01-31 21:35:00,
2013-01-31 16:38:00,20.3,-27.6,29.92,South,180,6.0,19.0,10,0.00,,,0.13,meteohub,2013-01-31 21:38:00,
2013-01-31 16:39:00,20.3,20.3,29.91,WNW,293,23.0,23.0,0,0.00,,,0.13,meteohub,2013-01-31 21:39:00,
2013-01-31 16:41:00,20.3,20.3,29.91,WSW,248,12.0,23.0,0,0.00,,,0.13,meteohub,2013-01-31 21:41:00,
2013-01-31 16:43:00,20.3,20.3,29.92,NW,315,8.0,23.0,0,0.00,,,0.13,meteohub,2013-01-31 21:43:00,
2013-01-31 16:44:00,20.3,20.3,29.91,West,270,17.0,23.0,0,0.00,,,0.13,meteohub,2013-01-31 21:44:00,
2013-01-31 16:45:00,20.3,20.3,29.91,WSW,248,16.0,23.0,0,0.00,,,0.13,meteohub,2013-01-31 21:45:00,
2013-01-31 16:46:00,20.3,20.3,29.91,WSW,248,16.0,23.0,0,0.00,,,0.13,meteohub,2013-01-31 21:46:00,
2013-01-31 16:49:00,20.3,20.3,29.92,SW,225,10.0,23.0,0,0.00,,,0.13,meteohub,2013-01-31 21:49:00,
2013-01-31 16:50:00,20.3,20.3,29.92,East,90,17.0,23.0,0,0.00,,,0.13,meteohub,2013-01-31 21:50:00,
2013-01-31 16:51:00,20.1,20.1,29.92,West,270,7.0,23.0,0,0.00,,,0.13,meteohub,2013-01-31 21:51:00,
2013-01-31 16:52:00,20.1,20.1,29.92,South,180,15.0,23.0,0,0.00,,,0.13,meteohub,2013-01-31 21:52:00,
2013-01-31 16:54:00,20.1,20.1,29.91,NW,315,23.0,23.0,0,0.00,,,0.13,meteohub,2013-01-31 21:54:00,
2013-01-31 16:55:00,20.1,20.1,29.92,North,0,7.0,17.0,0,0.00,,,0.13,meteohub,2013-01-31 21:55:00,
2013-01-31 16:56:00,20.1,20.1,29.92,WSW,248,4.0,17.0,0,0.00,,,0.13,meteohub,2013-01-31 21:56:00,
2013-01-31 16:57:00,19.9,19.9,29.92,North,0,6.0,17.0,0,0.00,,,0.13,meteohub,2013-01-31 21:57:00,
2013-01-31 17:00:00,19.9,19.9,29.92,WSW,248,5.0,17.0,0,0.00,,,0.13,meteohub,2013-01-31 22:00:00,
2013-01-31 17:01:00,19.9,19.9,29.92,WSW,248,13.0,23.0,0,0.00,,,0.13,meteohub,2013-01-31 22:01:00,
2013-01-31 17:04:00,19.9,19.9,29.92,West,270,4.0,23.0,0,0.00,,,0.13,meteohub,2013-01-31 22:04:00,
2013-01-31 17:05:00,19.9,19.9,29.92,South,180,4.0,23.0,0,0.00,,,0.13,meteohub,2013-01-31 22:05:00,
2013-01-31 17:06:00,19.9,19.9,29.92,West,270,21.0,23.0,0,0.00,,,0.13,meteohub,2013-01-31 22:06:00,
2013-01-31 17:10:00,19.9,19.9,29.92,NW,315,3.0,23.0,0,0.00,,,0.13,meteohub,2013-01-31 22:10:00,
2013-01-31 17:11:00,19.9,19.9,29.92,North,0,19.0,21.0,0,0.00,,,0.13,meteohub,2013-01-31 22:11:00,
2013-01-31 17:12:00,19.9,19.9,29.92,North,0,19.0,21.0,0,0.00,,,0.13,meteohub,2013-01-31 22:12:00,
2013-01-31 17:15:00,19.8,19.8,29.92,North,0,11.0,21.0,0,0.00,,,0.13,meteohub,2013-01-31 22:15:00,
2013-01-31 17:16:00,19.8,19.8,29.93,North,0,11.0,21.0,0,0.00,,,0.13,meteohub,2013-01-31 22:16:00,
2013-01-31 17:17:00,19.8,19.8,29.93,North,0,11.0,21.0,0,0.00,,,0.13,meteohub,2013-01-31 22:17:00,
2013-01-31 17:20:00,19.8,19.8,29.93,North,0,11.0,21.0,0,0.00,,,0.13,meteohub,2013-01-31 22:20:00,
2013-01-31 17:21:00,19.8,19.8,29.93,North,0,11.0,21.0,0,0.00,,,0.13,meteohub,2013-01-31 22:21:00,
2013-01-31 17:23:00,19.8,19.8,29.92,WSW,248,13.0,21.0,0,0.00,,,0.13,meteohub,2013-01-31 22:23:00,
2013-01-31 17:26:00,19.9,19.9,29.93,West,270,7.0,19.0,0,0.00,,,0.13,meteohub,2013-01-31 22:26:00,
2013-01-31 17:27:00,19.8,19.8,29.94,West,270,2.0,19.0,0,0.00,,,0.13,meteohub,2013-01-31 22:27:00,
2013-01-31 17:28:00,19.8,19.8,29.93,NW,315,6.0,19.0,0,0.00,,,0.13,meteohub,2013-01-31 22:28:00,
2013-01-31 17:32:00,19.8,19.8,29.94,WSW,248,4.0,13.0,0,0.00,,,0.13,meteohub,2013-01-31 22:32:00,
2013-01-31 17:33:00,19.8,19.8,29.94,NW,315,8.0,13.0,0,0.00,,,0.13,meteohub,2013-01-31 22:33:00,
2013-01-31 17:34:00,19.8,19.8,29.94,West,270,9.0,13.0,0,0.00,,,0.13,meteohub,2013-01-31 22:34:00,
2013-01-31 17:37:00,19.8,19.8,29.93,WSW,248,23.0,23.0,0,0.00,,,0.13,meteohub,2013-01-31 22:37:00,
2013-01-31 17:39:00,19.6,19.6,29.93,West,270,11.0,13.0,0,0.00,,,0.13,meteohub,2013-01-31 22:39:00,
2013-01-31 17:40:00,19.6,-28.1,29.94,NW,315,8.0,23.0,10,0.00,,,0.13,meteohub,2013-01-31 22:40:00,
2013-01-31 17:43:00,19.4,-28.3,29.94,WSW,248,7.0,23.0,10,0.00,,,0.13,meteohub,2013-01-31 22:43:00,
2013-01-31 17:44:00,19.4,-26.5,29.94,NW,315,15.0,23.0,11,0.00,,,0.13,meteohub,2013-01-31 22:44:00,
2013-01-31 17:45:00,19.4,-26.5,29.93,West,270,8.0,23.0,11,0.00,,,0.13,meteohub,2013-01-31 22:45:00,
2013-01-31 17:48:00,19.4,-26.5,29.94,NW,315,10.0,23.0,11,0.00,,,0.13,meteohub,2013-01-31 22:48:00,
2013-01-31 17:49:00,19.4,-26.5,29.94,West,270,6.0,23.0,11,0.00,,,0.13,meteohub,2013-01-31 22:49:00,
2013-01-31 17:50:00,19.4,-26.5,29.93,WSW,248,11.0,23.0,11,0.00,,,0.13,meteohub,2013-01-31 22:50:00,
2013-01-31 17:51:00,19.4,-26.5,29.94,WSW,248,6.0,23.0,11,0.00,,,0.13,meteohub,2013-01-31 22:51:00,
2013-01-31 17:54:00,19.4,-24.9,29.94,North,0,5.0,23.0,12,0.00,,,0.13,meteohub,2013-01-31 22:54:00,
2013-01-31 17:55:00,19.4,-26.5,29.94,NW,315,4.0,23.0,11,0.00,,,0.13,meteohub,2013-01-31 22:55:00,
2013-01-31 17:57:00,19.2,-26.7,29.94,WSW,248,16.0,16.0,11,0.00,,,0.13,meteohub,2013-01-31 22:57:00,
2013-01-31 17:59:00,19.2,-25.1,29.94,West,270,5.0,15.0,12,0.00,,,0.13,meteohub,2013-01-31 22:59:00,
2013-01-31 18:02:00,19.2,-25.1,29.94,WSW,248,8.0,16.0,12,0.00,,,0.13,meteohub,2013-01-31 23:02:00,
2013-01-31 18:03:00,19.2,-25.1,29.94,WSW,248,10.0,16.0,12,0.00,,,0.13,meteohub,2013-01-31 23:03:00,
2013-01-31 18:04:00,19.2,-23.6,29.94,WSW,248,12.0,16.0,13,0.00,,,0.13,meteohub,2013-01-31 23:04:00,
2013-01-31 18:07:00,19.2,-23.6,29.94,West,270,12.0,16.0,13,0.00,,,0.13,meteohub,2013-01-31 23:07:00,
2013-01-31 18:09:00,19.0,-23.8,29.94,West,270,6.0,16.0,13,0.00,,,0.13,meteohub,2013-01-31 23:09:00,
2013-01-31 18:10:00,19.0,-23.8,29.94,SE,135,4.0,16.0,13,0.00,,,0.13,meteohub,2013-01-31 23:10:00,
2013-01-31 18:13:00,19.0,-23.8,29.94,WSW,248,7.0,16.0,13,0.00,,,0.13,meteohub,2013-01-31 23:13:00,
2013-01-31 18:14:00,18.9,-22.5,29.94,WSW,248,4.0,16.0,14,0.00,,,0.13,meteohub,2013-01-31 23:14:00,
2013-01-31 18:15:00,18.9,-22.5,29.94,NW,315,3.0,16.0,14,0.00,,,0.13,meteohub,2013-01-31 23:15:00,
2013-01-31 18:16:00,18.9,-22.5,29.94,West,270,4.0,16.0,14,0.00,,,0.13,meteohub,2013-01-31 23:16:00,
2013-01-31 18:19:00,18.9,-22.5,29.94,West,270,4.0,12.0,14,0.00,,,0.13,meteohub,2013-01-31 23:19:00,
2013-01-31 18:20:00,18.9,-22.5,29.94,West,270,4.0,12.0,14,0.00,,,0.13,meteohub,2013-01-31 23:20:00,
2013-01-31 18:21:00,18.9,-22.5,29.95,West,270,4.0,12.0,14,0.00,,,0.13,meteohub,2013-01-31 23:21:00,
2013-01-31 18:22:00,18.9,-22.5,29.95,West,270,4.0,12.0,14,0.00,,,0.13,meteohub,2013-01-31 23:22:00,
2013-01-31 18:24:00,19.0,-22.4,29.95,WSW,248,5.0,12.0,14,0.00,,,0.13,meteohub,2013-01-31 23:24:00,
2013-01-31 18:25:00,19.0,-22.4,29.95,West,270,11.0,12.0,14,0.00,,,0.13,meteohub,2013-01-31 23:25:00,
2013-01-31 18:27:00,19.0,-22.4,29.94,NW,315,6.0,12.0,14,0.00,,,0.13,meteohub,2013-01-31 23:27:00,
2013-01-31 18:30:00,19.0,-22.4,29.94,NW,315,8.0,12.0,14,0.00,,,0.13,meteohub,2013-01-31 23:30:00,
2013-01-31 18:32:00,19.0,-22.4,29.95,WSW,248,6.0,11.0,14,0.00,,,0.13,meteohub,2013-01-31 23:32:00,
2013-01-31 18:33:00,19.2,-22.2,29.95,West,270,4.0,11.0,14,0.00,,,0.13,meteohub,2013-01-31 23:33:00,
2013-01-31 18:36:00,19.2,-25.1,29.95,NW,315,6.0,11.0,12,0.00,,,0.13,meteohub,2013-01-31 23:36:00,
2013-01-31 18:37:00,19.2,-25.1,29.95,West,270,13.0,13.0,12,0.00,,,0.13,meteohub,2013-01-31 23:37:00,
2013-01-31 18:38:00,19.4,-24.9,29.95,West,270,4.0,11.0,12,0.00,,,0.13,meteohub,2013-01-31 23:38:00,
2013-01-31 18:39:00,19.4,-26.5,29.95,WSW,248,8.0,11.0,11,0.00,,,0.13,meteohub,2013-01-31 23:39:00,
2013-01-31 18:41:00,19.4,-26.5,29.95,West,270,5.0,13.0,11,0.00,,,0.13,meteohub,2013-01-31 23:41:00,
2013-01-31 18:42:00,19.4,-26.5,29.94,WSW,248,15.0,15.0,11,0.00,,,0.13,meteohub,2013-01-31 23:42:00,
2013-01-31 18:43:00,19.4,-26.5,29.94,WSW,248,15.0,15.0,11,0.00,,,0.13,meteohub,2013-01-31 23:43:00,
2013-01-31 18:45:00,19.2,-28.5,29.95,South,180,5.0,13.0,10,0.00,,,0.13,meteohub,2013-01-31 23:45:00,
2013-01-31 18:46:00,19.2,-26.7,29.95,West,270,11.0,15.0,11,0.00,,,0.13,meteohub,2013-01-31 23:46:00,
2013-01-31 18:48:00,19.2,-28.5,29.95,South,180,6.0,15.0,10,0.00,,,0.13,meteohub,2013-01-31 23:48:00,
2013-01-31 18:50:00,19.2,-26.7,29.95,WSW,248,8.0,15.0,11,0.00,,,0.13,meteohub,2013-01-31 23:50:00,
2013-01-31 18:52:00,19.2,-28.5,29.95,WSW,248,8.0,15.0,10,0.00,,,0.13,meteohub,2013-01-31 23:52:00,
2013-01-31 18:54:00,19.2,-28.5,29.95,West,270,8.0,15.0,10,0.00,,,0.13,meteohub,2013-01-31 23:54:00,
2013-01-31 18:55:00,19.2,-28.5,29.95,WSW,248,4.0,15.0,10,0.00,,,0.13,meteohub,2013-01-31 23:55:00,
2013-01-31 18:56:00,19.2,-28.5,29.95,NW,315,16.0,16.0,10,0.00,,,0.13,meteohub,2013-01-31 23:56:00,
2013-01-31 18:57:00,19.2,-28.5,29.95,WSW,248,11.0,15.0,10,0.00,,,0.13,meteohub,2013-01-31 23:57:00,
2013-01-31 18:59:00,19.2,19.2,29.95,WSW,248,5.0,15.0,0,0.00,,,0.13,meteohub,2013-01-31 23:59:00,
2013-01-31 19:00:00,19.2,-28.5,29.95,West,270,4.0,15.0,10,0.00,,,0.13,meteohub,2013-02-01 00:00:00,
2013-01-31 19:02:00,19.2,-28.5,29.95,West,270,4.0,16.0,10,0.00,,,0.13,meteohub,2013-02-01 00:02:00,
2013-01-31 19:04:00,19.2,-28.5,29.95,West,270,4.0,16.0,10,0.00,,,0.13,meteohub,2013-02-01 00:04:00,
2013-01-31 19:05:00,19.2,-28.5,29.95,West,270,4.0,16.0,10,0.00,,,0.13,meteohub,2013-02-01 00:05:00,
2013-01-31 19:09:00,19.4,-28.3,29.95,WSW,248,11.0,16.0,10,0.00,,,0.13,meteohub,2013-02-01 00:09:00,
2013-01-31 19:10:00,19.4,-28.3,29.95,South,180,8.0,16.0,10,0.00,,,0.13,meteohub,2013-02-01 00:10:00,
2013-01-31 19:11:00,19.4,-28.3,29.94,South,180,14.0,16.0,10,0.00,,,0.13,meteohub,2013-02-01 00:11:00,
2013-01-31 19:14:00,19.4,-28.3,29.95,West,270,5.0,16.0,10,0.00,,,0.13,meteohub,2013-02-01 00:14:00,
2013-01-31 19:15:00,19.4,-28.3,29.95,West,270,11.0,16.0,10,0.00,,,0.13,meteohub,2013-02-01 00:15:00,
2013-01-31 19:16:00,19.6,-26.5,29.95,WSW,248,7.0,14.0,11,0.00,,,0.13,meteohub,2013-02-01 00:16:00,
2013-01-31 19:17:00,19.6,-24.9,29.95,NW,315,9.0,14.0,12,0.00,,,0.13,meteohub,2013-02-01 00:17:00,
2013-01-31 19:20:00,19.4,-24.9,29.95,West,270,12.0,14.0,12,0.00,,,0.13,meteohub,2013-02-01 00:20:00,
2013-01-31 19:21:00,19.4,-24.9,29.95,ESE,113,4.0,14.0,12,0.00,,,0.13,meteohub,2013-02-01 00:21:00,
2013-01-31 19:22:00,19.4,-23.4,29.95,West,270,8.0,14.0,13,0.00,,,0.13,meteohub,2013-02-01 00:22:00,
2013-01-31 19:24:00,19.4,-22.0,29.95,WSW,248,5.0,14.0,14,0.00,,,0.13,meteohub,2013-02-01 00:24:00,
2013-01-31 19:25:00,19.4,-22.0,29.95,West,270,6.0,14.0,14,0.00,,,0.13,meteohub,2013-02-01 00:25:00,
2013-01-31 19:26:00,19.4,-23.4,29.95,WSW,248,6.0,14.0,13,0.00,,,0.13,meteohub,2013-02-01 00:26:00,
2013-01-31 19:29:00,19.4,-23.4,29.95,West,270,8.0,14.0,13,0.00,,,0.13,meteohub,2013-02-01 00:29:00,
2013-01-31 19:30:00,19.6,-23.3,29.95,West,270,4.0,12.0,13,0.00,,,0.13,meteohub,2013-02-01 00:30:00,
2013-01-31 19:32:00,19.6,-21.8,29.95,West,270,5.0,12.0,14,0.00,,,0.13,meteohub,2013-02-01 00:32:00,
2013-01-31 19:35:00,19.4,-22.0,29.95,NW,315,9.0,12.0,14,0.00,,,0.13,meteohub,2013-02-01 00:35:00,
2013-01-31 19:36:00,19.6,-21.8,29.95,WSW,248,7.0,9.0,14,0.00,,,0.13,meteohub,2013-02-01 00:36:00,
2013-01-31 19:37:00,19.6,-21.8,29.95,WSW,248,7.0,9.0,14,0.00,,,0.13,meteohub,2013-02-01 00:37:00,
2013-01-31 19:40:00,19.8,-23.1,29.95,WSW,248,8.0,11.0,13,0.00,,,0.13,meteohub,2013-02-01 00:40:00,
2013-01-31 19:41:00,19.8,-23.1,29.95,WSW,248,8.0,11.0,13,0.00,,,0.13,meteohub,2013-02-01 00:41:00,
2013-01-31 19:43:00,19.8,-24.7,29.95,West,270,7.0,11.0,12,0.00,,,0.13,meteohub,2013-02-01 00:43:00,
2013-01-31 19:46:00,19.8,-23.1,29.95,WSW,248,6.0,11.0,13,0.00,,,0.13,meteohub,2013-02-01 00:46:00,
2013-01-31 19:48:00,19.8,-23.1,29.95,West,270,8.0,11.0,13,0.00,,,0.13,meteohub,2013-02-01 00:48:00,
2013-01-31 19:49:00,19.8,-23.1,29.95,WSW,248,9.0,11.0,13,0.00,,,0.13,meteohub,2013-02-01 00:49:00,
2013-01-31 19:52:00,19.8,-23.1,29.95,West,270,8.0,11.0,13,0.00,,,0.13,meteohub,2013-02-01 00:52:00,
2013-01-31 19:53:00,19.6,-23.3,29.95,South,180,4.0,11.0,13,0.00,,,0.13,meteohub,2013-02-01 00:53:00,
2013-01-31 19:56:00,19.6,-23.3,29.95,WSW,248,6.0,11.0,13,0.00,,,0.13,meteohub,2013-02-01 00:56:00,
2013-01-31 19:57:00,19.6,-23.3,29.95,NW,315,9.0,11.0,13,0.00,,,0.13,meteohub,2013-02-01 00:57:00,
2013-01-31 19:59:00,19.6,-23.3,29.95,NW,315,12.0,12.0,13,0.00,,,0.13,meteohub,2013-02-01 00:59:00,
2013-01-31 20:01:00,19.6,-23.3,29.95,NW,315,12.0,12.0,13,0.00,,,0.13,meteohub,2013-02-01 01:01:00,
2013-01-31 20:02:00,19.6,-23.3,29.95,NW,315,12.0,12.0,13,0.00,,,0.13,meteohub,2013-02-01 01:02:00,
2013-01-31 20:03:00,19.6,-23.3,29.95,NW,315,12.0,12.0,13,0.00,,,0.13,meteohub,2013-02-01 01:03:00,
2013-01-31 20:04:00,19.6,-23.3,29.95,NW,315,12.0,12.0,13,0.00,,,0.13,meteohub,2013-02-01 01:04:00,
2013-01-31 20:07:00,19.6,-23.3,29.95,NW,315,12.0,12.0,13,0.00,,,0.13,meteohub,2013-02-01 01:07:00,
2013-01-31 20:08:00,19.9,-24.5,29.95,West,270,11.0,12.0,12,0.00,,,0.13,meteohub,2013-02-01 01:08:00,
2013-01-31 20:11:00,19.9,-23.1,29.95,West,270,8.0,12.0,13,0.00,,,0.13,meteohub,2013-02-01 01:11:00,
2013-01-31 20:12:00,19.9,-23.1,29.95,WSW,248,13.0,13.0,13,0.00,,,0.13,meteohub,2013-02-01 01:12:00,
2013-01-31 20:13:00,19.9,-21.6,29.95,South,180,8.0,12.0,14,0.00,,,0.13,meteohub,2013-02-01 01:13:00,
2013-01-31 20:16:00,19.9,-21.6,29.95,WSW,248,9.0,13.0,14,0.00,,,0.13,meteohub,2013-02-01 01:16:00,
2013-01-31 20:17:00,19.9,-21.6,29.94,WSW,248,11.0,13.0,14,0.00,,,0.13,meteohub,2013-02-01 01:17:00,
2013-01-31 20:18:00,19.9,-21.6,29.95,WSW,248,7.0,13.0,14,0.00,,,0.13,meteohub,2013-02-01 01:18:00,
2013-01-31 20:19:00,19.9,-21.6,29.94,WSW,248,8.0,13.0,14,0.00,,,0.13,meteohub,2013-02-01 01:19:00,
2013-01-31 20:22:00,20.1,-21.5,29.95,WSW,248,5.0,13.0,14,0.00,,,0.13,meteohub,2013-02-01 01:22:00,
2013-01-31 20:23:00,20.1,-21.5,29.95,WSW,248,15.0,15.0,14,0.00,,,0.13,meteohub,2013-02-01 01:23:00,
2013-01-31 20:24:00,20.1,-21.5,29.95,WSW,248,5.0,13.0,14,0.00,,,0.13,meteohub,2013-02-01 01:24:00,
2013-01-31 20:27:00,20.1,-20.2,29.95,West,270,10.0,13.0,15,0.00,,,0.13,meteohub,2013-02-01 01:27:00,
2013-01-31 20:28:00,20.1,-21.5,29.95,NW,315,10.0,13.0,14,0.00,,,0.13,meteohub,2013-02-01 01:28:00,
2013-01-31 20:29:00,20.1,-21.5,29.95,WSW,248,4.0,13.0,14,0.00,,,0.13,meteohub,2013-02-01 01:29:00,
2013-01-31 20:30:00,20.1,-20.2,29.95,West,270,4.0,13.0,15,0.00,,,0.13,meteohub,2013-02-01 01:30:00,
2013-01-31 20:33:00,20.1,-20.2,29.95,West,270,9.0,15.0,15,0.00,,,0.13,meteohub,2013-02-01 01:33:00,
2013-01-31 20:34:00,20.1,-21.5,29.94,WSW,248,13.0,15.0,14,0.00,,,0.13,meteohub,2013-02-01 01:34:00,
2013-01-31 20:35:00,20.1,-21.5,29.94,West,270,6.0,15.0,14,0.00,,,0.13,meteohub,2013-02-01 01:35:00,
2013-01-31 20:39:00,20.1,-20.2,29.95,West,270,8.0,15.0,15,0.00,,,0.13,meteohub,2013-02-01 01:39:00,
2013-01-31 20:41:00,20.3,-20.0,29.95,WSW,248,7.0,14.0,15,0.00,,,0.13,meteohub,2013-02-01 01:41:00,
2013-01-31 20:44:00,20.3,-20.0,29.95,SE,135,15.0,15.0,15,0.00,,,0.13,meteohub,2013-02-01 01:44:00,
2013-01-31 20:46:00,20.3,-20.0,29.95,West,270,6.0,15.0,15,0.00,,,0.13,meteohub,2013-02-01 01:46:00,
2013-01-31 20:49:00,20.3,-20.0,29.94,North,0,13.0,15.0,15,0.00,,,0.13,meteohub,2013-02-01 01:49:00,
2013-01-31 20:51:00,20.3,-20.0,29.95,WSW,248,5.0,15.0,15,0.00,,,0.13,meteohub,2013-02-01 01:51:00,
2013-01-31 20:52:00,20.3,-20.0,29.94,WSW,248,7.0,15.0,15,0.00,,,0.13,meteohub,2013-02-01 01:52:00,
2013-01-31 20:54:00,20.3,-20.0,29.95,West,270,7.0,15.0,15,0.00,,,0.13,meteohub,2013-02-01 01:54:00,
2013-01-31 20:55:00,20.3,-20.0,29.95,West,270,7.0,15.0,15,0.00,,,0.13,meteohub,2013-02-01 01:55:00,
2013-01-31 20:57:00,20.3,-20.0,29.95,WSW,248,14.0,15.0,15,0.00,,,0.13,meteohub,2013-02-01 01:57:00,
2013-01-31 21:00:00,20.1,-17.7,29.95,WSW,248,7.0,15.0,17,0.00,,,0.13,meteohub,2013-02-01 02:00:00,
2013-01-31 21:02:00,20.1,-17.7,29.95,WSW,248,7.0,20.0,17,0.00,,,0.13,meteohub,2013-02-01 02:02:00,
2013-01-31 21:03:00,20.1,-17.7,29.95,WSW,248,7.0,20.0,17,0.00,,,0.13,meteohub,2013-02-01 02:03:00,
2013-01-31 21:05:00,20.1,-17.7,29.95,WSW,248,7.0,20.0,17,0.00,,,0.13,meteohub,2013-02-01 02:05:00,
2013-01-31 21:06:00,20.1,-17.7,29.95,WSW,248,7.0,20.0,17,0.00,,,0.13,meteohub,2013-02-01 02:06:00,
2013-01-31 21:08:00,19.8,-13.9,29.95,NW,315,12.0,20.0,21,0.00,,,0.13,meteohub,2013-02-01 02:08:00,
2013-01-31 21:10:00,19.8,-13.0,29.96,North,0,11.0,14.0,22,0.00,,,0.13,meteohub,2013-02-01 02:10:00,
2013-01-31 21:11:00,19.9,-12.8,29.96,West,270,7.0,14.0,22,0.00,,,0.13,meteohub,2013-02-01 02:11:00,
2013-01-31 21:13:00,19.9,-12.8,29.95,West,270,7.0,14.0,22,0.00,,,0.13,meteohub,2013-02-01 02:13:00,
2013-01-31 21:16:00,19.8,-12.1,29.95,East,90,10.0,13.0,23,0.00,,,0.13,meteohub,2013-02-01 02:16:00,
2013-01-31 21:17:00,19.8,-11.2,29.96,WSW,248,9.0,13.0,24,0.00,,,0.13,meteohub,2013-02-01 02:17:00,
2013-01-31 21:19:00,19.8,-10.5,29.96,West,270,5.0,13.0,25,0.00,,,0.13,meteohub,2013-02-01 02:19:00,
2013-01-31 21:21:00,19.6,-9.0,29.96,West,270,16.0,17.0,27,0.00,,,0.13,meteohub,2013-02-01 02:21:00,
2013-01-31 21:22:00,19.6,-9.0,29.95,South,180,16.0,17.0,27,0.00,,,0.13,meteohub,2013-02-01 02:22:00,
2013-01-31 21:25:00,19.4,-7.6,29.96,West,270,19.0,19.0,29,0.00,,,0.13,meteohub,2013-02-01 02:25:00,
2013-01-31 21:27:00,19.4,-6.3,29.96,West,270,13.0,17.0,31,0.00,,,0.13,meteohub,2013-02-01 02:27:00,
2013-01-31 21:28:00,19.4,-5.6,29.96,West,270,15.0,17.0,32,0.00,,,0.13,meteohub,2013-02-01 02:28:00,
2013-01-31 21:30:00,19.2,-4.5,29.95,West,270,7.0,19.0,34,0.00,,,0.13,meteohub,2013-02-01 02:30:00,
2013-01-31 21:32:00,19.2,-4.0,29.96,WSW,248,14.0,19.0,35,0.00,,,0.13,meteohub,2013-02-01 02:32:00,
2013-01-31 21:33:00,19.2,-4.0,29.96,WSW,248,14.0,19.0,35,0.00,,,0.13,meteohub,2013-02-01 02:33:00,
2013-01-31 21:35:00,19.2,-2.7,29.95,WSW,248,13.0,19.0,37,0.00,,,0.13,meteohub,2013-02-01 02:35:00,
2013-01-31 21:37:00,19.2,-2.2,29.96,West,270,11.0,19.0,38,0.00,,,0.13,meteohub,2013-02-01 02:37:00,
2013-01-31 21:38:00,19.2,-2.2,29.95,WSW,248,6.0,19.0,38,0.00,,,0.13,meteohub,2013-02-01 02:38:00,
2013-01-31 21:39:00,19.2,-2.2,29.95,NW,315,6.0,19.0,38,0.00,,,0.13,meteohub,2013-02-01 02:39:00,
2013-01-31 21:40:00,19.2,-1.7,29.96,WSW,248,6.0,18.0,39,0.00,,,0.13,meteohub,2013-02-01 02:40:00,
2013-01-31 21:43:00,19.2,-1.7,29.96,WSW,248,14.0,18.0,39,0.00,,,0.13,meteohub,2013-02-01 02:43:00,
2013-01-31 21:44:00,19.2,-1.1,29.96,WNW,293,10.0,18.0,40,0.00,,,0.13,meteohub,2013-02-01 02:44:00,
2013-01-31 21:45:00,19.2,-1.1,29.96,NW,315,11.0,14.0,40,0.00,,,0.13,meteohub,2013-02-01 02:45:00,
2013-01-31 21:46:00,19.2,-1.1,29.95,WSW,248,4.0,14.0,40,0.00,,,0.13,meteohub,2013-02-01 02:46:00,
2013-01-31 21:49:00,19.2,-0.6,29.95,NW,315,9.0,14.0,41,0.00,,,0.13,meteohub,2013-02-01 02:49:00,
2013-01-31 21:51:00,19.2,-0.6,29.95,West,270,9.0,14.0,41,0.00,,,0.13,meteohub,2013-02-01 02:51:00,
2013-01-31 21:52:00,19.2,-0.6,29.95,West,270,9.0,14.0,41,0.00,,,0.13,meteohub,2013-02-01 02:52:00,
2013-01-31 21:55:00,19.4,-0.4,29.95,NW,315,9.0,14.0,41,0.00,,,0.13,meteohub,2013-02-01 02:55:00,
2013-01-31 21:56:00,19.4,-0.4,29.95,NW,315,15.0,15.0,41,0.00,,,0.13,meteohub,2013-02-01 02:56:00,
2013-01-31 21:57:00,19.4,-0.4,29.95,NW,315,15.0,15.0,41,0.00,,,0.13,meteohub,2013-02-01 02:57:00,
2013-01-31 22:00:00,19.4,0.0,29.96,West,270,6.0,14.0,42,0.00,,,0.13,meteohub,2013-02-01 03:00:00,
2013-01-31 22:01:00,19.4,0.0,29.96,West,270,6.0,15.0,42,0.00,,,0.13,meteohub,2013-02-01 03:01:00,
2013-01-31 22:02:00,19.4,0.0,29.96,West,270,6.0,15.0,42,0.00,,,0.13,meteohub,2013-02-01 03:02:00,
2013-01-31 22:06:00,19.4,0.0,29.96,West,270,6.0,15.0,42,0.00,,,0.13,meteohub,2013-02-01 03:06:00,
2013-01-31 22:07:00,19.4,0.0,29.96,West,270,6.0,15.0,42,0.00,,,0.13,meteohub,2013-02-01 03:07:00,
2013-01-31 22:08:00,19.4,0.5,29.96,West,270,5.0,15.0,43,0.00,,,0.13,meteohub,2013-02-01 03:08:00,
2013-01-31 22:11:00,19.4,0.5,29.96,NW,315,15.0,15.0,43,0.00,,,0.13,meteohub,2013-02-01 03:11:00,
2013-01-31 22:13:00,19.2,0.3,29.96,NW,315,7.0,15.0,43,0.00,,,0.13,meteohub,2013-02-01 03:13:00,
2013-01-31 22:14:00,19.4,0.5,29.96,WSW,248,11.0,15.0,43,0.00,,,0.13,meteohub,2013-02-01 03:14:00,
2013-01-31 22:16:00,19.4,1.0,29.96,NW,315,4.0,15.0,44,0.00,,,0.13,meteohub,2013-02-01 03:16:00,
2013-01-31 22:18:00,19.4,1.0,29.96,NNW,338,8.0,15.0,44,0.00,,,0.13,meteohub,2013-02-01 03:18:00,
2013-01-31 22:19:00,19.4,1.0,29.97,NW,315,11.0,15.0,44,0.00,,,0.13,meteohub,2013-02-01 03:19:00,
2013-01-31 22:22:00,19.4,1.6,29.96,West,270,4.0,15.0,45,0.00,,,0.13,meteohub,2013-02-01 03:22:00,
2013-01-31 22:23:00,19.2,1.4,29.96,West,270,7.0,15.0,45,0.00,,,0.13,meteohub,2013-02-01 03:23:00,
2013-01-31 22:24:00,19.4,1.6,29.96,West,270,10.0,15.0,45,0.00,,,0.13,meteohub,2013-02-01 03:24:00,
2013-01-31 22:25:00,19.4,1.6,29.96,West,270,10.0,15.0,45,0.00,,,0.13,meteohub,2013-02-01 03:25:00,
2013-01-31 22:27:00,19.2,1.4,29.96,North,0,4.0,15.0,45,0.00,,,0.13,meteohub,2013-02-01 03:27:00,
2013-01-31 22:29:00,19.4,1.9,29.96,NW,315,5.0,15.0,46,0.00,,,0.13,meteohub,2013-02-01 03:29:00,
2013-01-31 22:30:00,19.4,1.9,29.96,West,270,8.0,15.0,46,0.00,,,0.13,meteohub,2013-02-01 03:30:00,
2013-01-31 22:33:00,19.2,1.8,29.96,NW,315,4.0,14.0,46,0.00,,,0.13,meteohub,2013-02-01 03:33:00,
2013-01-31 22:34:00,19.2,2.3,29.96,WSW,248,10.0,14.0,47,0.00,,,0.13,meteohub,2013-02-01 03:34:00,
2013-01-31 22:35:00,19.2,2.3,29.96,WSW,248,10.0,14.0,47,0.00,,,0.13,meteohub,2013-02-01 03:35:00,
2013-01-31 22:39:00,19.2,2.3,29.96,WSW,248,4.0,14.0,47,0.00,,,0.13,meteohub,2013-02-01 03:39:00,
2013-01-31 22:40:00,19.2,2.3,29.95,WSW,248,9.0,14.0,47,0.00,,,0.13,meteohub,2013-02-01 03:40:00,
2013-01-31 22:41:00,19.2,2.3,29.96,West,270,10.0,14.0,47,0.00,,,0.13,meteohub,2013-02-01 03:41:00,
2013-01-31 22:44:00,19.2,2.3,29.96,WSW,248,5.0,14.0,47,0.00,,,0.13,meteohub,2013-02-01 03:44:00,
2013-01-31 22:46:00,19.2,2.3,29.96,WSW,248,15.0,15.0,47,0.00,,,0.13,meteohub,2013-02-01 03:46:00,
2013-01-31 22:50:00,19.2,2.7,29.96,West,270,15.0,15.0,48,0.00,,,0.13,meteohub,2013-02-01 03:50:00,
2013-01-31 22:51:00,19.2,2.7,29.96,NW,315,11.0,15.0,48,0.00,,,0.13,meteohub,2013-02-01 03:51:00,
2013-01-31 22:52:00,19.2,2.7,29.96,WSW,248,18.0,18.0,48,0.00,,,0.13,meteohub,2013-02-01 03:52:00,
2013-01-31 22:55:00,19.2,2.7,29.95,WSW,248,9.0,18.0,48,0.00,,,0.13,meteohub,2013-02-01 03:55:00,
2013-01-31 22:56:00,19.0,2.7,29.95,WSW,248,9.0,18.0,48,0.00,,,0.13,meteohub,2013-02-01 03:56:00,
2013-01-31 22:57:00,19.0,2.7,29.95,WSW,248,4.0,18.0,48,0.00,,,0.13,meteohub,2013-02-01 03:57:00,
2013-01-31 22:58:00,19.0,2.7,29.95,WSW,248,8.0,18.0,48,0.00,,,0.13,meteohub,2013-02-01 03:58:00,
2013-01-31 23:01:00,19.0,2.7,29.96,WSW,248,8.0,18.0,48,0.00,,,0.13,meteohub,2013-02-01 04:01:00,
2013-01-31 23:02:00,19.0,2.7,29.96,WSW,248,13.0,18.0,48,0.00,,,0.13,meteohub,2013-02-01 04:02:00,
2013-01-31 23:04:00,19.0,2.7,29.96,NW,315,7.0,18.0,48,0.00,,,0.13,meteohub,2013-02-01 04:04:00,
2013-01-31 23:06:00,19.0,3.0,29.96,West,270,9.0,18.0,49,0.00,,,0.13,meteohub,2013-02-01 04:06:00,
2013-01-31 23:07:00,19.0,3.0,29.96,WSW,248,7.0,18.0,49,0.00,,,0.13,meteohub,2013-02-01 04:07:00,
2013-01-31 23:08:00,19.0,3.0,29.96,West,270,7.0,18.0,49,0.00,,,0.13,meteohub,2013-02-01 04:08:00,
2013-01-31 23:10:00,19.0,3.0,29.96,South,180,10.0,18.0,49,0.00,,,0.13,meteohub,2013-02-01 04:10:00,
2013-01-31 23:11:00,19.0,3.0,29.96,West,270,11.0,16.0,49,0.00,,,0.13,meteohub,2013-02-01 04:11:00,
2013-01-31 23:12:00,19.0,3.0,29.96,SE,135,8.0,16.0,49,0.00,,,0.13,meteohub,2013-02-01 04:12:00,
2013-01-31 23:13:00,19.0,3.0,29.96,NW,315,5.0,16.0,49,0.00,,,0.13,meteohub,2013-02-01 04:13:00,
2013-01-31 23:15:00,19.0,3.0,29.96,South,180,12.0,16.0,49,0.00,,,0.13,meteohub,2013-02-01 04:15:00,
2013-01-31 23:16:00,19.0,3.0,29.96,West,270,6.0,16.0,49,0.00,,,0.13,meteohub,2013-02-01 04:16:00,
2013-01-31 23:17:00,19.0,3.0,29.96,West,270,8.0,16.0,49,0.00,,,0.13,meteohub,2013-02-01 04:17:00,
2013-01-31 23:19:00,19.0,3.0,29.96,WSW,248,9.0,16.0,49,0.00,,,0.13,meteohub,2013-02-01 04:19:00,
2013-01-31 23:21:00,19.0,3.0,29.96,West,270,4.0,15.0,49,0.00,,,0.13,meteohub,2013-02-01 04:21:00,
2013-01-31 23:22:00,19.0,3.0,29.96,NW,315,8.0,15.0,49,0.00,,,0.13,meteohub,2013-02-01 04:22:00,
2013-01-31 23:23:00,19.0,3.0,29.96,West,270,10.0,15.0,49,0.00,,,0.13,meteohub,2013-02-01 04:23:00,
2013-01-31 23:25:00,19.0,3.0,29.96,West,270,11.0,15.0,49,0.00,,,0.13,meteohub,2013-02-01 04:25:00,
2013-01-31 23:27:00,19.0,3.0,29.96,WSW,248,6.0,15.0,49,0.00,,,0.13,meteohub,2013-02-01 04:27:00,
2013-01-31 23:28:00,19.0,3.0,29.96,West,270,8.0,15.0,49,0.00,,,0.13,meteohub,2013-02-01 04:28:00,
2013-01-31 23:30:00,19.0,3.0,29.96,NW,315,7.0,13.0,49,0.00,,,0.13,meteohub,2013-02-01 04:30:00,
2013-01-31 23:32:00,19.0,3.0,29.96,WSW,248,2.0,13.0,49,0.00,,,0.13,meteohub,2013-02-01 04:32:00,
2013-01-31 23:33:00,19.0,3.0,29.96,WSW,248,2.0,13.0,49,0.00,,,0.13,meteohub,2013-02-01 04:33:00,
2013-01-31 23:35:00,19.0,3.0,29.96,NW,315,4.0,11.0,49,0.00,,,0.13,meteohub,2013-02-01 04:35:00,
2013-01-31 23:36:00,19.0,3.0,29.96,NW,315,4.0,11.0,49,0.00,,,0.13,meteohub,2013-02-01 04:36:00,
2013-01-31 23:38:00,19.0,3.4,29.96,WSW,248,5.0,11.0,50,0.00,,,0.13,meteohub,2013-02-01 04:38:00,
2013-01-31 23:39:00,19.0,3.0,29.96,West,270,5.0,11.0,49,0.00,,,0.13,meteohub,2013-02-01 04:39:00,
2013-01-31 23:41:00,19.0,3.0,29.96,NW,315,6.0,12.0,49,0.00,,,0.13,meteohub,2013-02-01 04:41:00,
2013-01-31 23:42:00,19.0,3.0,29.96,West,270,4.0,12.0,49,0.00,,,0.13,meteohub,2013-02-01 04:42:00,
2013-01-31 23:43:00,19.0,3.4,29.96,West,270,4.0,12.0,50,0.00,,,0.13,meteohub,2013-02-01 04:43:00,
2013-01-31 23:46:00,19.2,3.6,29.96,West,270,6.0,12.0,50,0.00,,,0.13,meteohub,2013-02-01 04:46:00,
2013-01-31 23:47:00,19.2,3.6,29.96,South,180,8.0,12.0,50,0.00,,,0.13,meteohub,2013-02-01 04:47:00,
2013-01-31 23:48:00,19.2,3.6,29.96,South,180,4.0,12.0,50,0.00,,,0.13,meteohub,2013-02-01 04:48:00,
2013-01-31 23:51:00,19.2,3.6,29.96,NW,315,6.0,12.0,50,0.00,,,0.13,meteohub,2013-02-01 04:51:00,
2013-01-31 23:53:00,19.2,3.6,29.96,West,270,5.0,12.0,50,0.00,,,0.13,meteohub,2013-02-01 04:53:00,
2013-01-31 23:57:00,19.2,3.6,29.95,WSW,248,10.0,10.0,50,0.00,,,0.13,meteohub,2013-02-01 04:57:00,
2013-01-31 23:58:00,19.2,3.6,29.95,WSW,248,6.0,8.0,50,0.00,,,0.13,meteohub,2013-02-01 04:58:00,
2013-01-31 23:59:00,19.2,3.6,29.95,West,270,5.0,8.0,50,0.00,,,0.13,meteohub,2013-02-01 04:59:00,